Time,TemperatureF,DewpointF,PressureIn,WindDirection,WindDirectionDegrees,WindSpeedMPH,WindSpeedGustMPH,Humidity,HourlyPrecipIn,Conditions,Clouds,dailyrainin,SoftwareType,DateUTC
2013-10-20 00:02:00,52.8,42.9,30.03,NNE,16,0.0,0.0,69,0.00,,,0.00,Wunderground v.1.15,2013-10-20 05:02:00,
2013-10-20 00:03:00,52.8,42.9,30.03,NNE,16,0.0,0.0,69,0.00,,,0.00,Wunderground v.1.15,2013-10-20 05:03:00,
2013-10-20 00:07:00,52.8,42.9,30.03,NNE,16,0.0,0.0,69,0.00,,,0.00,Wunderground v.1.15,2013-10-20 05:07:00,
2013-10-20 00:09:00,52.6,42.7,30.03,NNE,16,0.0,0.0,69,0.00,,,0.00,Wunderground v.1.15,2013-10-20 05:09:00,
2013-10-20 00:12:00,52.6,42.7,30.03,NNE,16,0.0,0.0,69,0.00,,,0.00,Wunderground v.1.15,2013-10-20 05:12:00,
2013-10-20 00:14:00,52.6,43.1,30.03,NNE,16,0.0,0.0,70,0.00,,,0.00,Wunderground v.1.15,2013-10-20 05:14:00,
2013-10-20 00:15:00,52.5,43.0,30.03,NNE,16,0.0,0.0,70,0.00,,,0.00,Wunderground v.1.15,2013-10-20 05:15:00,
2013-10-20 00:18:00,52.5,43.0,30.02,NNE,16,0.0,0.0,70,0.00,,,0.00,Wunderground v.1.15,2013-10-20 05:18:00,
2013-10-20 00:19:00,52.5,43.0,30.02,NNE,16,0.0,0.0,70,0.00,,,0.00,Wunderground v.1.15,2013-10-20 05:19:00,
2013-10-20 00:21:00,52.5,43.0,30.02,NNE,16,0.0,0.0,70,0.00,,,0.00,Wunderground v.1.15,2013-10-20 05:21:00,
2013-10-20 00:22:00,52.5,43.0,30.02,NNE,16,0.0,0.0,70,0.00,,,0.00,Wunderground v.1.15,2013-10-20 05:22:00,
2013-10-20 00:24:00,52.3,42.8,30.02,NNE,17,0.0,0.0,70,0.00,,,0.00,Wunderground v.1.15,2013-10-20 05:24:00,
2013-10-20 00:25:00,52.3,42.8,30.02,NNE,16,0.0,0.0,70,0.00,,,0.00,Wunderground v.1.15,2013-10-20 05:25:00,
2013-10-20 00:26:00,52.3,42.8,30.02,NNE,16,0.0,0.0,70,0.00,,,0.00,Wunderground v.1.15,2013-10-20 05:26:00,
2013-10-20 00:27:00,52.3,42.8,30.02,NNE,16,0.0,0.0,70,0.00,,,0.00,Wunderground v.1.15,2013-10-20 05:27:00,
2013-10-20 00:31:00,52.3,42.8,30.02,NNE,16,0.0,0.0,70,0.00,,,0.00,Wunderground v.1.15,2013-10-20 05:31:00,
2013-10-20 00:32:00,52.2,42.7,30.01,NNE,17,0.0,0.0,70,0.00,,,0.00,Wunderground v.1.15,2013-10-20 05:32:00,
2013-10-20 00:33:00,52.2,42.7,30.01,NNE,16,0.0,0.0,70,0.00,,,0.00,Wunderground v.1.15,2013-10-20 05:33:00,
2013-10-20 00:34:00,52.2,42.7,30.01,NNE,16,0.0,0.0,70,0.00,,,0.00,Wunderground v.1.15,2013-10-20 05:34:00,
2013-10-20 00:37:00,52.2,42.7,30.01,NNE,16,0.0,0.0,70,0.00,,,0.00,Wunderground v.1.15,2013-10-20 05:37:00,
2013-10-20 00:38:00,52.2,42.7,30.01,NNE,16,0.0,0.0,70,0.00,,,0.00,Wunderground v.1.15,2013-10-20 05:38:00,
2013-10-20 00:41:00,52.2,42.7,30.01,NNE,16,0.0,1.0,70,0.00,,,0.00,Wunderground v.1.15,2013-10-20 05:41:00,
2013-10-20 00:42:00,52.2,42.7,30.01,NNE,16,0.0,1.0,70,0.00,,,0.00,Wunderground v.1.15,2013-10-20 05:42:00,
2013-10-20 00:43:00,52.2,42.7,30.01,NNE,16,0.0,1.0,70,0.00,,,0.00,Wunderground v.1.15,2013-10-20 05:43:00,
2013-10-20 00:46:00,52.0,42.5,30.01,NNE,17,0.0,1.0,70,0.00,,,0.00,Wunderground v.1.15,2013-10-20 05:46:00,
2013-10-20 00:47:00,52.0,42.5,30.01,NNE,16,0.0,1.0,70,0.00,,,0.00,Wunderground v.1.15,2013-10-20 05:47:00,
2013-10-20 00:48:00,52.0,42.5,30.01,NNE,16,0.0,1.0,70,0.00,,,0.00,Wunderground v.1.15,2013-10-20 05:48:00,
2013-10-20 00:49:00,52.0,42.5,30.01,NNE,17,0.0,1.0,70,0.00,,,0.00,Wunderground v.1.15,2013-10-20 05:49:00,
2013-10-20 00:54:00,52.0,42.5,30.01,NNE,16,0.0,0.0,70,0.00,,,0.00,Wunderground v.1.15,2013-10-20 05:54:00,
2013-10-20 00:55:00,52.0,42.9,30.01,NNE,16,0.0,0.0,71,0.00,,,0.00,Wunderground v.1.15,2013-10-20 05:55:00,
2013-10-20 00:57:00,52.0,42.9,30.01,NNE,16,0.0,0.0,71,0.00,,,0.00,Wunderground v.1.15,2013-10-20 05:57:00,
2013-10-20 00:58:00,52.0,42.9,30.01,NNE,16,0.0,0.0,71,0.00,,,0.00,Wunderground v.1.15,2013-10-20 05:58:00,
2013-10-20 01:01:00,51.9,42.8,30.01,NNE,17,0.0,0.0,71,0.00,,,0.00,Wunderground v.1.15,2013-10-20 06:01:00,
2013-10-20 01:03:00,51.9,42.8,30.01,NNE,17,0.0,1.0,71,0.00,,,0.00,Wunderground v.1.15,2013-10-20 06:03:00,
2013-10-20 01:04:00,51.9,42.8,30.01,NNE,17,0.0,1.0,71,0.00,,,0.00,Wunderground v.1.15,2013-10-20 06:04:00,
2013-10-20 01:06:00,51.9,42.8,30.01,NNE,17,1.0,2.0,71,0.00,,,0.00,Wunderground v.1.15,2013-10-20 06:06:00,
2013-10-20 01:09:00,51.9,42.4,30.01,NNE,17,1.0,2.0,70,0.00,,,0.00,Wunderground v.1.15,2013-10-20 06:09:00,
2013-10-20 01:11:00,51.9,42.4,30.01,NNE,17,1.0,2.0,70,0.00,,,0.00,Wunderground v.1.15,2013-10-20 06:11:00,
2013-10-20 01:16:00,51.7,42.6,30.01,NNE,16,1.0,2.0,71,0.00,,,0.00,Wunderground v.1.15,2013-10-20 06:16:00,
2013-10-20 01:17:00,51.7,42.6,30.00,NNE,16,1.0,2.0,71,0.00,,,0.00,Wunderground v.1.15,2013-10-20 06:17:00,
2013-10-20 01:18:00,51.7,42.6,30.00,NNE,16,1.0,2.0,71,0.00,,,0.00,Wunderground v.1.15,2013-10-20 06:18:00,
2013-10-20 01:19:00,51.7,42.6,30.00,NNE,16,1.0,2.0,71,0.00,,,0.00,Wunderground v.1.15,2013-10-20 06:19:00,
2013-10-20 01:25:00,51.6,42.5,30.00,NNE,17,1.0,1.0,71,0.00,,,0.00,Wunderground v.1.15,2013-10-20 06:25:00,
2013-10-20 01:26:00,51.6,42.5,30.00,NNE,17,1.0,1.0,71,0.00,,,0.00,Wunderground v.1.15,2013-10-20 06:26:00,
2013-10-20 01:27:00,51.6,42.5,30.00,NNE,17,0.0,1.0,71,0.00,,,0.00,Wunderground v.1.15,2013-10-20 06:27:00,
2013-10-20 01:28:00,51.6,42.5,30.00,NNE,17,0.0,1.0,71,0.00,,,0.00,Wunderground v.1.15,2013-10-20 06:28:00,
2013-10-20 01:31:00,51.6,42.5,30.00,NNE,17,0.0,0.0,71,0.00,,,0.00,Wunderground v.1.15,2013-10-20 06:31:00,
2013-10-20 01:32:00,51.6,42.5,30.00,NNE,17,0.0,0.0,71,0.00,,,0.00,Wunderground v.1.15,2013-10-20 06:32:00,
2013-10-20 01:33:00,51.6,42.5,30.00,NNE,17,0.0,0.0,71,0.00,,,0.00,Wunderground v.1.15,2013-10-20 06:33:00,
2013-10-20 01:35:00,51.6,42.5,30.00,NNE,17,0.0,1.0,71,0.00,,,0.00,Wunderground v.1.15,2013-10-20 06:35:00,
2013-10-20 01:37:00,51.6,42.5,30.00,NNE,17,0.0,1.0,71,0.00,,,0.00,Wunderground v.1.15,2013-10-20 06:37:00,
2013-10-20 01:38:00,51.6,42.5,30.00,NNE,17,0.0,1.0,71,0.00,,,0.00,Wunderground v.1.15,2013-10-20 06:38:00,
2013-10-20 01:42:00,51.4,42.3,30.00,NNE,16,1.0,1.0,71,0.00,,,0.00,Wunderground v.1.15,2013-10-20 06:42:00,
2013-10-20 01:43:00,51.4,42.3,30.00,NNE,16,1.0,1.0,71,0.00,,,0.00,Wunderground v.1.15,2013-10-20 06:43:00,
2013-10-20 01:44:00,51.4,42.3,30.00,NNE,16,1.0,1.0,71,0.00,,,0.00,Wunderground v.1.15,2013-10-20 06:44:00,
2013-10-20 01:45:00,51.4,42.3,30.00,NNE,16,0.0,1.0,71,0.00,,,0.00,Wunderground v.1.15,2013-10-20 06:45:00,
2013-10-20 01:48:00,51.4,42.3,29.99,NNE,16,0.0,1.0,71,0.00,,,0.00,Wunderground v.1.15,2013-10-20 06:48:00,
2013-10-20 01:49:00,51.4,42.3,29.99,NNE,17,0.0,2.0,71,0.00,,,0.00,Wunderground v.1.15,2013-10-20 06:49:00,
2013-10-20 01:51:00,51.4,42.3,29.99,NNE,16,0.0,2.0,71,0.00,,,0.00,Wunderground v.1.15,2013-10-20 06:51:00,
2013-10-20 01:53:00,51.4,42.3,29.99,NNE,16,1.0,2.0,71,0.00,,,0.00,Wunderground v.1.15,2013-10-20 06:53:00,
2013-10-20 01:56:00,51.4,42.3,29.99,NNE,16,1.0,2.0,71,0.00,,,0.00,Wunderground v.1.15,2013-10-20 06:56:00,
2013-10-20 01:57:00,51.4,42.3,29.99,NNE,16,2.0,2.0,71,0.00,,,0.00,Wunderground v.1.15,2013-10-20 06:57:00,
2013-10-20 01:58:00,51.4,42.3,29.99,NNE,16,2.0,3.0,71,0.00,,,0.00,Wunderground v.1.15,2013-10-20 06:58:00,
2013-10-20 01:59:00,51.4,41.9,29.99,NNE,16,2.0,3.0,70,0.00,,,0.00,Wunderground v.1.15,2013-10-20 06:59:00,
2013-10-20 02:03:00,51.4,42.3,29.99,NNE,16,1.0,2.0,71,0.00,,,0.00,Wunderground v.1.15,2013-10-20 07:03:00,
2013-10-20 02:04:00,51.6,42.5,29.99,NNE,16,2.0,2.0,71,0.00,,,0.00,Wunderground v.1.15,2013-10-20 07:04:00,
2013-10-20 02:05:00,51.6,42.5,29.99,NNE,16,2.0,2.0,71,0.00,,,0.00,Wunderground v.1.15,2013-10-20 07:05:00,
2013-10-20 02:06:00,51.6,42.5,29.99,NNE,17,1.0,2.0,71,0.00,,,0.00,Wunderground v.1.15,2013-10-20 07:06:00,
2013-10-20 02:07:00,51.4,42.3,29.99,NNE,16,1.0,2.0,71,0.00,,,0.00,Wunderground v.1.15,2013-10-20 07:07:00,
2013-10-20 02:11:00,51.4,41.9,29.99,NNE,16,1.0,2.0,70,0.00,,,0.00,Wunderground v.1.15,2013-10-20 07:11:00,
2013-10-20 02:13:00,51.4,41.9,29.99,NNE,16,1.0,2.0,70,0.00,,,0.00,Wunderground v.1.15,2013-10-20 07:13:00,
2013-10-20 02:14:00,51.4,41.9,29.99,NNE,16,1.0,2.0,70,0.00,,,0.00,Wunderground v.1.15,2013-10-20 07:14:00,
2013-10-20 02:15:00,51.4,41.9,29.99,NNE,16,1.0,2.0,70,0.00,,,0.00,Wunderground v.1.15,2013-10-20 07:15:00,
2013-10-20 02:18:00,51.4,42.3,29.99,NNE,16,1.0,2.0,71,0.00,,,0.00,Wunderground v.1.15,2013-10-20 07:18:00,
2013-10-20 02:21:00,51.4,42.3,29.99,NNE,16,1.0,1.0,71,0.00,,,0.00,Wunderground v.1.15,2013-10-20 07:21:00,
2013-10-20 02:22:00,51.4,42.3,29.99,NNE,16,1.0,1.0,71,0.00,,,0.00,Wunderground v.1.15,2013-10-20 07:22:00,
2013-10-20 02:23:00,51.3,42.2,29.99,NNE,16,1.0,1.0,71,0.00,,,0.00,Wunderground v.1.15,2013-10-20 07:23:00,
2013-10-20 02:24:00,51.3,42.2,29.99,NNE,17,1.0,2.0,71,0.00,,,0.00,Wunderground v.1.15,2013-10-20 07:24:00,
2013-10-20 02:28:00,51.3,42.2,29.99,NNE,16,1.0,2.0,71,0.00,,,0.00,Wunderground v.1.15,2013-10-20 07:28:00,
2013-10-20 02:29:00,51.3,42.2,29.99,NNE,16,1.0,2.0,71,0.00,,,0.00,Wunderground v.1.15,2013-10-20 07:29:00,
2013-10-20 02:31:00,51.1,42.0,29.99,NNE,16,1.0,1.0,71,0.00,,,0.00,Wunderground v.1.15,2013-10-20 07:31:00,
2013-10-20 02:33:00,51.1,42.0,29.99,NNE,17,1.0,1.0,71,0.00,,,0.00,Wunderground v.1.15,2013-10-20 07:33:00,
2013-10-20 02:35:00,51.1,42.0,29.99,NNE,16,1.0,1.0,71,0.00,,,0.00,Wunderground v.1.15,2013-10-20 07:35:00,
2013-10-20 02:36:00,51.1,42.0,29.99,NNE,16,0.0,1.0,71,0.00,,,0.00,Wunderground v.1.15,2013-10-20 07:36:00,
2013-10-20 02:37:00,51.1,42.0,29.99,NNE,16,0.0,1.0,71,0.00,,,0.00,Wunderground v.1.15,2013-10-20 07:37:00,
2013-10-20 02:39:00,51.1,42.0,29.99,NNE,16,0.0,1.0,71,0.00,,,0.00,Wunderground v.1.15,2013-10-20 07:39:00,
2013-10-20 02:41:00,51.1,42.0,29.99,NNE,16,0.0,1.0,71,0.00,,,0.00,Wunderground v.1.15,2013-10-20 07:41:00,
2013-10-20 02:42:00,51.1,42.0,29.99,NNE,16,0.0,1.0,71,0.00,,,0.00,Wunderground v.1.15,2013-10-20 07:42:00,
2013-10-20 02:45:00,51.0,42.3,29.99,NNE,17,1.0,2.0,72,0.00,,,0.00,Wunderground v.1.15,2013-10-20 07:45:00,
2013-10-20 02:47:00,51.0,42.3,29.98,NNE,17,1.0,2.0,72,0.00,,,0.00,Wunderground v.1.15,2013-10-20 07:47:00,
2013-10-20 02:49:00,51.0,42.3,29.98,NNE,16,1.0,2.0,72,0.00,,,0.00,Wunderground v.1.15,2013-10-20 07:49:00,
2013-10-20 02:52:00,51.0,42.3,29.98,NNE,16,1.0,1.0,72,0.00,,,0.00,Wunderground v.1.15,2013-10-20 07:52:00,
2013-10-20 02:53:00,51.0,42.3,29.98,NNE,16,1.0,1.0,72,0.00,,,0.00,Wunderground v.1.15,2013-10-20 07:53:00,
2013-10-20 02:56:00,51.0,42.3,29.98,NNE,17,0.0,1.0,72,0.00,,,0.00,Wunderground v.1.15,2013-10-20 07:56:00,
2013-10-20 02:59:00,50.8,42.1,29.98,NNE,16,0.0,1.0,72,0.00,,,0.00,Wunderground v.1.15,2013-10-20 07:59:00,
2013-10-20 03:01:00,50.8,42.1,29.98,NNE,16,0.0,0.0,72,0.00,,,0.00,Wunderground v.1.15,2013-10-20 08:01:00,
2013-10-20 03:02:00,50.8,42.1,29.98,NNE,16,0.0,0.0,72,0.00,,,0.00,Wunderground v.1.15,2013-10-20 08:02:00,
2013-10-20 03:07:00,50.8,42.1,29.98,NNE,16,1.0,1.0,72,0.00,,,0.00,Wunderground v.1.15,2013-10-20 08:07:00,
2013-10-20 03:08:00,50.8,42.1,29.98,NNE,16,0.0,1.0,72,0.00,,,0.00,Wunderground v.1.15,2013-10-20 08:08:00,
2013-10-20 03:11:00,50.8,42.1,29.98,NNE,16,0.0,0.0,72,0.00,,,0.00,Wunderground v.1.15,2013-10-20 08:11:00,
2013-10-20 03:13:00,50.7,42.0,29.98,NNE,16,0.0,0.0,72,0.00,,,0.00,Wunderground v.1.15,2013-10-20 08:13:00,
2013-10-20 03:15:00,50.7,42.0,29.98,NNE,16,0.0,0.0,72,0.00,,,0.00,Wunderground v.1.15,2013-10-20 08:15:00,
2013-10-20 03:16:00,50.7,42.0,29.98,NNE,16,0.0,0.0,72,0.00,,,0.00,Wunderground v.1.15,2013-10-20 08:16:00,
2013-10-20 03:17:00,50.7,42.0,29.97,NNE,16,0.0,0.0,72,0.00,,,0.00,Wunderground v.1.15,2013-10-20 08:17:00,
2013-10-20 03:19:00,50.7,42.0,29.97,NNE,16,0.0,1.0,72,0.00,,,0.00,Wunderground v.1.15,2013-10-20 08:19:00,
2013-10-20 03:21:00,50.5,41.8,29.97,NNE,16,0.0,0.0,72,0.00,,,0.00,Wunderground v.1.15,2013-10-20 08:21:00,
2013-10-20 03:23:00,50.5,41.8,29.97,NNE,16,0.0,0.0,72,0.00,,,0.00,Wunderground v.1.15,2013-10-20 08:23:00,
2013-10-20 03:24:00,50.5,41.8,29.97,NNE,16,0.0,0.0,72,0.00,,,0.00,Wunderground v.1.15,2013-10-20 08:24:00,
2013-10-20 03:25:00,50.5,41.8,29.97,NNE,16,0.0,0.0,72,0.00,,,0.00,Wunderground v.1.15,2013-10-20 08:25:00,
2013-10-20 03:28:00,50.5,41.8,29.97,NNE,16,0.0,0.0,72,0.00,,,0.00,Wunderground v.1.15,2013-10-20 08:28:00,
2013-10-20 03:29:00,50.5,41.8,29.97,NNE,16,0.0,0.0,72,0.00,,,0.00,Wunderground v.1.15,2013-10-20 08:29:00,
2013-10-20 03:32:00,50.5,41.8,29.97,NNE,16,0.0,1.0,72,0.00,,,0.00,Wunderground v.1.15,2013-10-20 08:32:00,
2013-10-20 03:33:00,50.5,41.8,29.97,NNE,16,0.0,1.0,72,0.00,,,0.00,Wunderground v.1.15,2013-10-20 08:33:00,
2013-10-20 03:35:00,50.4,42.1,29.97,NNE,16,0.0,1.0,73,0.00,,,0.00,Wunderground v.1.15,2013-10-20 08:35:00,
2013-10-20 03:37:00,50.4,42.1,29.97,NNE,16,0.0,2.0,73,0.00,,,0.00,Wunderground v.1.15,2013-10-20 08:37:00,
2013-10-20 03:38:00,50.4,42.1,29.97,NNE,16,0.0,2.0,73,0.00,,,0.00,Wunderground v.1.15,2013-10-20 08:38:00,
2013-10-20 03:39:00,50.4,42.1,29.97,NNE,16,0.0,2.0,73,0.00,,,0.00,Wunderground v.1.15,2013-10-20 08:39:00,
2013-10-20 03:41:00,50.4,42.1,29.97,NNE,16,1.0,1.0,73,0.00,,,0.00,Wunderground v.1.15,2013-10-20 08:41:00,
2013-10-20 03:43:00,50.2,41.9,29.97,NNE,16,1.0,2.0,73,0.00,,,0.00,Wunderground v.1.15,2013-10-20 08:43:00,
2013-10-20 03:44:00,50.2,41.9,29.97,NNE,16,1.0,2.0,73,0.00,,,0.00,Wunderground v.1.15,2013-10-20 08:44:00,
2013-10-20 03:46:00,50.2,41.9,29.97,NNE,16,1.0,2.0,73,0.00,,,0.00,Wunderground v.1.15,2013-10-20 08:46:00,
2013-10-20 03:47:00,50.2,41.9,29.96,NNE,16,1.0,2.0,73,0.00,,,0.00,Wunderground v.1.15,2013-10-20 08:47:00,
2013-10-20 03:49:00,50.2,41.9,29.96,NNE,16,1.0,2.0,73,0.00,,,0.00,Wunderground v.1.15,2013-10-20 08:49:00,
2013-10-20 03:51:00,50.2,41.9,29.96,NNE,16,1.0,2.0,73,0.00,,,0.00,Wunderground v.1.15,2013-10-20 08:51:00,
2013-10-20 03:52:00,50.2,41.9,29.96,NNE,16,1.0,2.0,73,0.00,,,0.00,Wunderground v.1.15,2013-10-20 08:52:00,
2013-10-20 03:53:00,50.2,41.9,29.96,NNE,16,1.0,2.0,73,0.00,,,0.00,Wunderground v.1.15,2013-10-20 08:53:00,
2013-10-20 03:54:00,50.2,41.9,29.96,NNE,16,1.0,2.0,73,0.00,,,0.00,Wunderground v.1.15,2013-10-20 08:54:00,
2013-10-20 03:55:00,50.2,41.9,29.96,NNE,16,1.0,2.0,73,0.00,,,0.00,Wunderground v.1.15,2013-10-20 08:55:00,
2013-10-20 03:57:00,50.2,41.9,29.96,NNE,16,1.0,3.0,73,0.00,,,0.00,Wunderground v.1.15,2013-10-20 08:57:00,
2013-10-20 03:59:00,50.2,41.9,29.96,NNE,16,2.0,3.0,73,0.00,,,0.00,Wunderground v.1.15,2013-10-20 08:59:00,
2013-10-20 04:02:00,50.2,41.9,29.96,NNE,16,2.0,2.0,73,0.00,,,0.00,Wunderground v.1.15,2013-10-20 09:02:00,
2013-10-20 04:03:00,50.2,41.9,29.96,NNE,16,1.0,2.0,73,0.00,,,0.00,Wunderground v.1.15,2013-10-20 09:03:00,
2013-10-20 04:05:00,50.2,41.9,29.96,NNE,16,1.0,2.0,73,0.00,,,0.00,Wunderground v.1.15,2013-10-20 09:05:00,
2013-10-20 04:07:00,50.2,41.9,29.96,NNE,16,1.0,2.0,73,0.00,,,0.00,Wunderground v.1.15,2013-10-20 09:07:00,
2013-10-20 04:08:00,50.2,41.9,29.96,NNE,16,1.0,2.0,73,0.00,,,0.00,Wunderground v.1.15,2013-10-20 09:08:00,
2013-10-20 04:12:00,50.2,41.9,29.96,NNE,16,1.0,1.0,73,0.00,,,0.00,Wunderground v.1.15,2013-10-20 09:12:00,
2013-10-20 04:13:00,50.2,41.9,29.96,NNE,16,1.0,1.0,73,0.00,,,0.00,Wunderground v.1.15,2013-10-20 09:13:00,
2013-10-20 04:14:00,50.2,41.9,29.96,NNE,16,1.0,1.0,73,0.00,,,0.00,Wunderground v.1.15,2013-10-20 09:14:00,
2013-10-20 04:15:00,50.2,41.9,29.96,NNE,16,0.0,1.0,73,0.00,,,0.00,Wunderground v.1.15,2013-10-20 09:15:00,
2013-10-20 04:16:00,50.2,41.9,29.96,NNE,16,0.0,1.0,73,0.00,,,0.00,Wunderground v.1.15,2013-10-20 09:16:00,
2013-10-20 04:17:00,50.1,41.8,29.97,NNE,16,0.0,1.0,73,0.00,,,0.00,Wunderground v.1.15,2013-10-20 09:17:00,
2013-10-20 04:21:00,50.1,41.8,29.97,NNE,16,0.0,0.0,73,0.00,,,0.00,Wunderground v.1.15,2013-10-20 09:21:00,
2013-10-20 04:22:00,50.1,41.8,29.97,NNE,16,0.0,0.0,73,0.00,,,0.00,Wunderground v.1.15,2013-10-20 09:22:00,
2013-10-20 04:24:00,50.1,41.8,29.97,NNE,16,0.0,0.0,73,0.00,,,0.00,Wunderground v.1.15,2013-10-20 09:24:00,
2013-10-20 04:26:00,50.1,41.8,29.97,NNE,16,0.0,0.0,73,0.00,,,0.00,Wunderground v.1.15,2013-10-20 09:26:00,
2013-10-20 04:28:00,50.1,41.8,29.97,NNE,16,0.0,0.0,73,0.00,,,0.00,Wunderground v.1.15,2013-10-20 09:28:00,
2013-10-20 04:29:00,49.9,41.6,29.97,NNE,16,0.0,0.0,73,0.00,,,0.00,Wunderground v.1.15,2013-10-20 09:29:00,
2013-10-20 04:31:00,49.9,41.6,29.97,NNE,16,0.0,0.0,73,0.00,,,0.00,Wunderground v.1.15,2013-10-20 09:31:00,
2013-10-20 04:32:00,49.9,41.6,29.97,NNE,16,0.0,0.0,73,0.00,,,0.00,Wunderground v.1.15,2013-10-20 09:32:00,
2013-10-20 04:33:00,49.9,41.6,29.97,NNE,16,0.0,1.0,73,0.00,,,0.00,Wunderground v.1.15,2013-10-20 09:33:00,
2013-10-20 04:34:00,49.9,41.6,29.97,NNE,16,0.0,1.0,73,0.00,,,0.00,Wunderground v.1.15,2013-10-20 09:34:00,
2013-10-20 04:35:00,49.9,41.6,29.97,NNE,16,0.0,2.0,73,0.00,,,0.00,Wunderground v.1.15,2013-10-20 09:35:00,
2013-10-20 04:39:00,49.8,41.8,29.97,NNE,16,1.0,2.0,74,0.00,,,0.00,Wunderground v.1.15,2013-10-20 09:39:00,
2013-10-20 04:41:00,49.8,41.8,29.97,NNE,16,1.0,2.0,74,0.00,,,0.00,Wunderground v.1.15,2013-10-20 09:41:00,
2013-10-20 04:43:00,49.8,41.8,29.97,NNE,16,1.0,2.0,74,0.00,,,0.00,Wunderground v.1.15,2013-10-20 09:43:00,
2013-10-20 04:44:00,49.8,41.8,29.97,NNE,16,1.0,2.0,74,0.00,,,0.00,Wunderground v.1.15,2013-10-20 09:44:00,
2013-10-20 04:47:00,49.8,41.8,29.97,NNE,16,1.0,2.0,74,0.00,,,0.00,Wunderground v.1.15,2013-10-20 09:47:00,
2013-10-20 04:51:00,49.6,41.7,29.97,NNE,16,1.0,1.0,74,0.00,,,0.00,Wunderground v.1.15,2013-10-20 09:51:00,
2013-10-20 04:53:00,49.6,41.7,29.97,NNE,16,1.0,2.0,74,0.00,,,0.00,Wunderground v.1.15,2013-10-20 09:53:00,
2013-10-20 04:54:00,49.6,41.7,29.97,NNE,16,1.0,2.0,74,0.00,,,0.00,Wunderground v.1.15,2013-10-20 09:54:00,
2013-10-20 04:55:00,49.6,41.7,29.97,NNE,16,1.0,2.0,74,0.00,,,0.00,Wunderground v.1.15,2013-10-20 09:55:00,
2013-10-20 04:57:00,49.6,41.7,29.97,NNE,16,1.0,2.0,74,0.00,,,0.00,Wunderground v.1.15,2013-10-20 09:57:00,
2013-10-20 04:58:00,49.6,41.7,29.97,NNE,16,1.0,2.0,74,0.00,,,0.00,Wunderground v.1.15,2013-10-20 09:58:00,
2013-10-20 04:59:00,49.6,41.7,29.97,NNE,16,1.0,2.0,74,0.00,,,0.00,Wunderground v.1.15,2013-10-20 09:59:00,
2013-10-20 05:01:00,49.6,41.7,29.97,NNE,16,1.0,1.0,74,0.00,,,0.00,Wunderground v.1.15,2013-10-20 10:01:00,
2013-10-20 05:02:00,49.6,41.7,29.96,NNE,16,1.0,1.0,74,0.00,,,0.00,Wunderground v.1.15,2013-10-20 10:02:00,
2013-10-20 05:04:00,49.6,41.7,29.96,NNE,16,0.0,1.0,74,0.00,,,0.00,Wunderground v.1.15,2013-10-20 10:04:00,
2013-10-20 05:05:00,49.6,41.7,29.96,NNE,17,0.0,1.0,74,0.00,,,0.00,Wunderground v.1.15,2013-10-20 10:05:00,
2013-10-20 05:06:00,49.6,41.7,29.96,NNE,16,0.0,1.0,74,0.00,,,0.00,Wunderground v.1.15,2013-10-20 10:06:00,
2013-10-20 05:08:00,49.6,41.7,29.96,NNE,17,0.0,2.0,74,0.00,,,0.00,Wunderground v.1.15,2013-10-20 10:08:00,
2013-10-20 05:09:00,49.6,41.7,29.96,NNE,17,0.0,2.0,74,0.00,,,0.00,Wunderground v.1.15,2013-10-20 10:09:00,
2013-10-20 05:11:00,49.6,41.7,29.96,NNE,17,1.0,3.0,74,0.00,,,0.00,Wunderground v.1.15,2013-10-20 10:11:00,
2013-10-20 05:13:00,49.6,41.7,29.96,NNE,17,1.0,3.0,74,0.00,,,0.00,Wunderground v.1.15,2013-10-20 10:13:00,
2013-10-20 05:16:00,49.5,41.6,29.96,NNE,16,1.0,3.0,74,0.00,,,0.00,Wunderground v.1.15,2013-10-20 10:16:00,
2013-10-20 05:18:00,49.5,41.6,29.96,NNE,16,1.0,3.0,74,0.00,,,0.00,Wunderground v.1.15,2013-10-20 10:18:00,
2013-10-20 05:22:00,49.5,41.9,29.96,NNE,16,1.0,1.0,75,0.00,,,0.00,Wunderground v.1.15,2013-10-20 10:22:00,
2013-10-20 05:23:00,49.5,41.9,29.96,NNE,16,0.0,1.0,75,0.00,,,0.00,Wunderground v.1.15,2013-10-20 10:23:00,
2013-10-20 05:24:00,49.5,41.9,29.96,NNE,16,0.0,1.0,75,0.00,,,0.00,Wunderground v.1.15,2013-10-20 10:24:00,
2013-10-20 05:25:00,49.5,41.9,29.96,NNE,16,0.0,1.0,75,0.00,,,0.00,Wunderground v.1.15,2013-10-20 10:25:00,
2013-10-20 05:27:00,49.5,41.9,29.96,NNE,16,0.0,1.0,75,0.00,,,0.00,Wunderground v.1.15,2013-10-20 10:27:00,
2013-10-20 05:31:00,49.5,41.9,29.96,NNE,17,0.0,0.0,75,0.00,,,0.00,Wunderground v.1.15,2013-10-20 10:31:00,
2013-10-20 05:33:00,49.5,41.9,29.96,NNE,16,1.0,2.0,75,0.00,,,0.00,Wunderground v.1.15,2013-10-20 10:33:00,
2013-10-20 05:34:00,49.5,41.9,29.96,NNE,16,1.0,2.0,75,0.00,,,0.00,Wunderground v.1.15,2013-10-20 10:34:00,
2013-10-20 05:37:00,49.5,41.9,29.96,NNE,16,1.0,2.0,75,0.00,,,0.00,Wunderground v.1.15,2013-10-20 10:37:00,
2013-10-20 05:38:00,49.5,41.9,29.96,NNE,16,1.0,2.0,75,0.00,,,0.00,Wunderground v.1.15,2013-10-20 10:38:00,
2013-10-20 05:39:00,49.5,41.9,29.96,NNE,16,1.0,2.0,75,0.00,,,0.00,Wunderground v.1.15,2013-10-20 10:39:00,
2013-10-20 05:41:00,49.4,41.8,29.96,NNE,16,1.0,1.0,75,0.00,,,0.00,Wunderground v.1.15,2013-10-20 10:41:00,
2013-10-20 05:44:00,49.4,41.8,29.96,NNE,16,1.0,1.0,75,0.00,,,0.00,Wunderground v.1.15,2013-10-20 10:44:00,
2013-10-20 05:46:00,49.4,41.8,29.96,NNE,16,1.0,1.0,75,0.00,,,0.00,Wunderground v.1.15,2013-10-20 10:46:00,
2013-10-20 05:49:00,49.5,41.9,29.97,NNE,16,1.0,2.0,75,0.00,,,0.00,Wunderground v.1.15,2013-10-20 10:49:00,
2013-10-20 05:51:00,49.5,41.9,29.97,NNE,16,1.0,2.0,75,0.00,,,0.00,Wunderground v.1.15,2013-10-20 10:51:00,
2013-10-20 05:54:00,49.4,41.8,29.97,NNE,16,0.0,1.0,75,0.00,,,0.00,Wunderground v.1.15,2013-10-20 10:54:00,
2013-10-20 05:56:00,49.4,41.8,29.97,NNE,16,0.0,1.0,75,0.00,,,0.00,Wunderground v.1.15,2013-10-20 10:56:00,
2013-10-20 05:57:00,49.4,41.8,29.97,NNE,16,0.0,1.0,75,0.00,,,0.00,Wunderground v.1.15,2013-10-20 10:57:00,
2013-10-20 05:58:00,49.4,41.8,29.97,NNE,16,0.0,2.0,75,0.00,,,0.00,Wunderground v.1.15,2013-10-20 10:58:00,
2013-10-20 06:03:00,49.4,41.8,29.97,NNE,17,0.0,2.0,75,0.00,,,0.00,Wunderground v.1.15,2013-10-20 11:03:00,
2013-10-20 06:04:00,49.4,41.8,29.97,NNE,17,1.0,2.0,75,0.00,,,0.00,Wunderground v.1.15,2013-10-20 11:04:00,
2013-10-20 06:05:00,49.4,41.8,29.97,NNE,17,1.0,2.0,75,0.00,,,0.00,Wunderground v.1.15,2013-10-20 11:05:00,
2013-10-20 06:08:00,49.5,41.9,29.97,NNE,17,1.0,2.0,75,0.00,,,0.00,Wunderground v.1.15,2013-10-20 11:08:00,
2013-10-20 06:09:00,49.5,41.9,29.97,NNE,16,1.0,2.0,75,0.00,,,0.00,Wunderground v.1.15,2013-10-20 11:09:00,
2013-10-20 06:11:00,49.5,41.9,29.97,NNE,17,1.0,2.0,75,0.00,,,0.00,Wunderground v.1.15,2013-10-20 11:11:00,
2013-10-20 06:12:00,49.5,41.9,29.97,NNE,16,1.0,3.0,75,0.00,,,0.00,Wunderground v.1.15,2013-10-20 11:12:00,
2013-10-20 06:14:00,49.5,41.6,29.97,NNE,16,1.0,3.0,74,0.00,,,0.00,Wunderground v.1.15,2013-10-20 11:14:00,
2013-10-20 06:17:00,49.5,41.9,29.97,NNE,17,2.0,3.0,75,0.00,,,0.00,Wunderground v.1.15,2013-10-20 11:17:00,
2013-10-20 06:18:00,49.5,41.9,29.97,NNE,17,2.0,3.0,75,0.00,,,0.00,Wunderground v.1.15,2013-10-20 11:18:00,
2013-10-20 06:19:00,49.5,41.9,29.97,NNE,17,2.0,3.0,75,0.00,,,0.00,Wunderground v.1.15,2013-10-20 11:19:00,
2013-10-20 06:21:00,49.4,41.8,29.97,NNE,17,1.0,1.0,75,0.00,,,0.00,Wunderground v.1.15,2013-10-20 11:21:00,
2013-10-20 06:24:00,49.4,41.8,29.97,NNE,16,1.0,1.0,75,0.00,,,0.00,Wunderground v.1.15,2013-10-20 11:24:00,
2013-10-20 06:25:00,49.4,41.8,29.97,NNE,16,1.0,1.0,75,0.00,,,0.00,Wunderground v.1.15,2013-10-20 11:25:00,
2013-10-20 06:26:00,49.4,41.8,29.97,NNE,16,1.0,2.0,75,0.00,,,0.00,Wunderground v.1.15,2013-10-20 11:26:00,
2013-10-20 06:28:00,49.2,41.6,29.97,NNE,16,1.0,2.0,75,0.00,,,0.00,Wunderground v.1.15,2013-10-20 11:28:00,
2013-10-20 06:31:00,49.2,41.6,29.97,NNE,16,1.0,1.0,75,0.00,,,0.00,Wunderground v.1.15,2013-10-20 11:31:00,
2013-10-20 06:33:00,49.2,41.6,29.97,NNE,16,1.0,1.0,75,0.00,,,0.00,Wunderground v.1.15,2013-10-20 11:33:00,
2013-10-20 06:34:00,49.2,41.6,29.97,NNE,16,1.0,1.0,75,0.00,,,0.00,Wunderground v.1.15,2013-10-20 11:34:00,
2013-10-20 06:36:00,49.2,41.6,29.97,NNE,16,1.0,1.0,75,0.00,,,0.00,Wunderground v.1.15,2013-10-20 11:36:00,
2013-10-20 06:38:00,49.2,41.6,29.97,NNE,16,0.0,1.0,75,0.00,,,0.00,Wunderground v.1.15,2013-10-20 11:38:00,
2013-10-20 06:39:00,49.2,41.6,29.97,NNE,16,0.0,1.0,75,0.00,,,0.00,Wunderground v.1.15,2013-10-20 11:39:00,
2013-10-20 06:41:00,49.2,41.6,29.97,NNE,16,0.0,0.0,75,0.00,,,0.00,Wunderground v.1.15,2013-10-20 11:41:00,
2013-10-20 06:42:00,49.2,41.6,29.97,NNE,16,0.0,1.0,75,0.00,,,0.00,Wunderground v.1.15,2013-10-20 11:42:00,
2013-10-20 06:44:00,49.2,41.6,29.97,NNE,16,0.0,1.0,75,0.00,,,0.00,Wunderground v.1.15,2013-10-20 11:44:00,
2013-10-20 06:46:00,49.2,41.6,29.97,NNE,16,0.0,1.0,75,0.00,,,0.00,Wunderground v.1.15,2013-10-20 11:46:00,
2013-10-20 06:47:00,49.2,41.6,29.98,NNE,16,0.0,2.0,75,0.00,,,0.00,Wunderground v.1.15,2013-10-20 11:47:00,
2013-10-20 06:52:00,49.2,41.6,29.98,NNE,17,1.0,3.0,75,0.00,,,0.00,Wunderground v.1.15,2013-10-20 11:52:00,
2013-10-20 06:53:00,49.2,41.6,29.98,NNE,17,1.0,3.0,75,0.00,,,0.00,Wunderground v.1.15,2013-10-20 11:53:00,
2013-10-20 06:56:00,49.4,41.8,29.98,NNE,17,1.0,3.0,75,0.00,,,0.00,Wunderground v.1.15,2013-10-20 11:56:00,
2013-10-20 06:57:00,49.4,41.8,29.98,NNE,17,2.0,3.0,75,0.00,,,0.00,Wunderground v.1.15,2013-10-20 11:57:00,
2013-10-20 06:59:00,49.4,41.8,29.98,NNE,17,1.0,3.0,75,0.00,,,0.00,Wunderground v.1.15,2013-10-20 11:59:00,
2013-10-20 07:01:00,49.4,41.8,29.98,NNE,17,1.0,1.0,75,0.00,,,0.00,Wunderground v.1.15,2013-10-20 12:01:00,
2013-10-20 07:03:00,49.4,41.8,29.98,NNE,17,1.0,1.0,75,0.00,,,0.00,Wunderground v.1.15,2013-10-20 12:03:00,
2013-10-20 07:05:00,49.4,41.8,29.98,NNE,17,1.0,1.0,75,0.00,,,0.00,Wunderground v.1.15,2013-10-20 12:05:00,
2013-10-20 07:06:00,49.4,41.8,29.98,NNE,17,0.0,1.0,75,0.00,,,0.00,Wunderground v.1.15,2013-10-20 12:06:00,
2013-10-20 07:08:00,49.2,41.6,29.98,NNE,17,0.0,2.0,75,0.00,,,0.00,Wunderground v.1.15,2013-10-20 12:08:00,
2013-10-20 07:09:00,49.2,41.6,29.98,NNE,17,0.0,2.0,75,0.00,,,0.00,Wunderground v.1.15,2013-10-20 12:09:00,
2013-10-20 07:11:00,49.2,41.6,29.98,NNE,17,0.0,2.0,75,0.00,,,0.00,Wunderground v.1.15,2013-10-20 12:11:00,
2013-10-20 07:14:00,49.2,41.6,29.98,NNE,17,1.0,2.0,75,0.00,,,0.00,Wunderground v.1.15,2013-10-20 12:14:00,
2013-10-20 07:16:00,49.4,41.8,29.98,NNE,17,1.0,2.0,75,0.00,,,0.00,Wunderground v.1.15,2013-10-20 12:16:00,
2013-10-20 07:17:00,49.4,41.8,29.99,NNE,17,1.0,2.0,75,0.00,,,0.00,Wunderground v.1.15,2013-10-20 12:17:00,
2013-10-20 07:19:00,49.4,41.5,29.99,NNE,17,1.0,2.0,74,0.00,,,0.00,Wunderground v.1.15,2013-10-20 12:19:00,
2013-10-20 07:23:00,49.4,41.5,29.99,NNE,17,2.0,3.0,74,0.00,,,0.00,Wunderground v.1.15,2013-10-20 12:23:00,
2013-10-20 07:25:00,49.4,41.5,29.99,NNE,17,2.0,3.0,74,0.00,,,0.00,Wunderground v.1.15,2013-10-20 12:25:00,
2013-10-20 07:26:00,49.4,41.5,29.99,NNE,17,2.0,3.0,74,0.00,,,0.00,Wunderground v.1.15,2013-10-20 12:26:00,
2013-10-20 07:28:00,49.4,41.5,29.99,NNE,17,2.0,3.0,74,0.00,,,0.00,Wunderground v.1.15,2013-10-20 12:28:00,
2013-10-20 07:31:00,49.4,41.5,29.99,NNE,17,2.0,2.0,74,0.00,,,0.00,Wunderground v.1.15,2013-10-20 12:31:00,
2013-10-20 07:32:00,49.4,41.5,29.99,NNE,17,2.0,2.0,74,0.00,,,0.00,Wunderground v.1.15,2013-10-20 12:32:00,
2013-10-20 07:34:00,49.4,41.5,29.99,NNE,17,2.0,2.0,74,0.00,,,0.00,Wunderground v.1.15,2013-10-20 12:34:00,
2013-10-20 07:35:00,49.4,41.5,29.99,NNE,17,2.0,2.0,74,0.00,,,0.00,Wunderground v.1.15,2013-10-20 12:35:00,
2013-10-20 07:37:00,49.4,41.5,29.99,NNE,17,2.0,2.0,74,0.00,,,0.00,Wunderground v.1.15,2013-10-20 12:37:00,
2013-10-20 07:39:00,49.4,41.5,29.99,NNE,17,2.0,2.0,74,0.00,,,0.00,Wunderground v.1.15,2013-10-20 12:39:00,
2013-10-20 07:41:00,49.4,41.5,29.99,NNE,17,2.0,2.0,74,0.00,,,0.00,Wunderground v.1.15,2013-10-20 12:41:00,
2013-10-20 07:42:00,49.2,41.3,29.99,NNE,17,2.0,2.0,74,0.00,,,0.00,Wunderground v.1.15,2013-10-20 12:42:00,
2013-10-20 07:46:00,49.2,41.3,29.99,NNE,17,2.0,2.0,74,0.00,,,0.00,Wunderground v.1.15,2013-10-20 12:46:00,
2013-10-20 07:47:00,49.2,41.3,29.99,NNE,17,2.0,2.0,74,0.00,,,0.00,Wunderground v.1.15,2013-10-20 12:47:00,
2013-10-20 07:48:00,49.2,41.3,29.99,NNE,17,2.0,2.0,74,0.00,,,0.00,Wunderground v.1.15,2013-10-20 12:48:00,
2013-10-20 07:49:00,49.2,41.3,29.99,NNE,17,2.0,2.0,74,0.00,,,0.00,Wunderground v.1.15,2013-10-20 12:49:00,
2013-10-20 07:52:00,49.1,41.5,29.99,NNE,17,1.0,1.0,75,0.00,,,0.00,Wunderground v.1.15,2013-10-20 12:52:00,
2013-10-20 07:53:00,49.1,41.5,29.99,NNE,17,1.0,1.0,75,0.00,,,0.00,Wunderground v.1.15,2013-10-20 12:53:00,
2013-10-20 07:54:00,49.1,41.5,29.99,NNE,17,1.0,1.0,75,0.00,,,0.00,Wunderground v.1.15,2013-10-20 12:54:00,
2013-10-20 07:55:00,49.1,41.5,29.99,NNE,17,1.0,1.0,75,0.00,,,0.00,Wunderground v.1.15,2013-10-20 12:55:00,
2013-10-20 07:57:00,49.1,41.5,29.99,NNE,17,1.0,1.0,75,0.00,,,0.00,Wunderground v.1.15,2013-10-20 12:57:00,
2013-10-20 07:58:00,49.2,41.6,29.99,NNE,17,1.0,1.0,75,0.00,,,0.00,Wunderground v.1.15,2013-10-20 12:58:00,
2013-10-20 08:01:00,49.2,41.6,29.99,NNE,17,1.0,2.0,75,0.00,,,0.00,Wunderground v.1.15,2013-10-20 13:01:00,
2013-10-20 08:02:00,49.2,41.6,30.00,NNE,17,1.0,2.0,75,0.00,,,0.00,Wunderground v.1.15,2013-10-20 13:02:00,
2013-10-20 08:03:00,49.4,41.8,30.00,NNE,17,1.0,2.0,75,0.00,,,0.00,Wunderground v.1.15,2013-10-20 13:03:00,
2013-10-20 08:04:00,49.4,41.8,30.00,NNE,17,1.0,2.0,75,0.00,,,0.00,Wunderground v.1.15,2013-10-20 13:04:00,
2013-10-20 08:07:00,49.5,41.6,30.00,NNE,17,1.0,2.0,74,0.00,,,0.00,Wunderground v.1.15,2013-10-20 13:07:00,
2013-10-20 08:08:00,49.6,41.7,30.00,NNE,17,1.0,2.0,74,0.00,,,0.00,Wunderground v.1.15,2013-10-20 13:08:00,
2013-10-20 08:11:00,49.8,41.8,30.00,NNE,17,1.0,1.0,74,0.00,,,0.00,Wunderground v.1.15,2013-10-20 13:11:00,
2013-10-20 08:12:00,49.8,41.8,30.00,NNE,17,1.0,1.0,74,0.00,,,0.00,Wunderground v.1.15,2013-10-20 13:12:00,
2013-10-20 08:15:00,50.1,41.8,30.00,NNE,17,0.0,1.0,73,0.00,,,0.00,Wunderground v.1.15,2013-10-20 13:15:00,
2013-10-20 08:16:00,50.1,41.8,30.00,NNE,17,0.0,1.0,73,0.00,,,0.00,Wunderground v.1.15,2013-10-20 13:16:00,
2013-10-20 08:18:00,50.2,41.9,30.00,NNE,17,0.0,1.0,73,0.00,,,0.00,Wunderground v.1.15,2013-10-20 13:18:00,
2013-10-20 08:22:00,50.5,42.2,30.00,NNE,17,0.0,2.0,73,0.00,,,0.00,Wunderground v.1.15,2013-10-20 13:22:00,
2013-10-20 08:23:00,50.5,42.2,30.00,NNE,17,0.0,2.0,73,0.00,,,0.00,Wunderground v.1.15,2013-10-20 13:23:00,
2013-10-20 08:24:00,50.7,42.4,30.00,NNE,17,0.0,2.0,73,0.00,,,0.00,Wunderground v.1.15,2013-10-20 13:24:00,
2013-10-20 08:28:00,51.0,42.3,30.00,NNE,17,1.0,2.0,72,0.00,,,0.00,Wunderground v.1.15,2013-10-20 13:28:00,
2013-10-20 08:29:00,51.1,42.4,30.00,NNE,17,1.0,2.0,72,0.00,,,0.00,Wunderground v.1.15,2013-10-20 13:29:00,
2013-10-20 08:31:00,51.3,42.6,30.00,NNE,17,1.0,1.0,72,0.00,,,0.00,Wunderground v.1.15,2013-10-20 13:31:00,
2013-10-20 08:32:00,51.3,42.6,30.00,NNE,17,1.0,2.0,72,0.00,,,0.00,Wunderground v.1.15,2013-10-20 13:32:00,
2013-10-20 08:33:00,51.4,42.7,30.00,NNE,17,1.0,2.0,72,0.00,,,0.00,Wunderground v.1.15,2013-10-20 13:33:00,
2013-10-20 08:36:00,51.7,42.6,30.00,NNE,17,1.0,2.0,71,0.00,,,0.00,Wunderground v.1.15,2013-10-20 13:36:00,
2013-10-20 08:38:00,51.9,42.8,30.00,NNE,17,1.0,2.0,71,0.00,,,0.00,Wunderground v.1.15,2013-10-20 13:38:00,
2013-10-20 08:41:00,52.2,43.1,30.00,NNE,17,2.0,2.0,71,0.00,,,0.00,Wunderground v.1.15,2013-10-20 13:41:00,
2013-10-20 08:45:00,52.6,43.1,30.00,NNE,17,1.0,2.0,70,0.00,,,0.00,Wunderground v.1.15,2013-10-20 13:45:00,
2013-10-20 08:46:00,52.8,43.3,30.00,NNE,17,1.0,2.0,70,0.00,,,0.00,Wunderground v.1.15,2013-10-20 13:46:00,
2013-10-20 08:47:00,52.9,43.4,30.00,NNE,17,1.0,2.0,70,0.00,,,0.00,Wunderground v.1.15,2013-10-20 13:47:00,
2013-10-20 08:49:00,53.2,43.3,30.00,NNE,17,1.0,2.0,69,0.00,,,0.00,Wunderground v.1.15,2013-10-20 13:49:00,
2013-10-20 08:51:00,53.3,43.4,30.00,NNE,17,0.0,2.0,69,0.00,,,0.00,Wunderground v.1.15,2013-10-20 13:51:00,
2013-10-20 08:54:00,53.8,43.1,30.00,ENE,58,1.0,2.0,67,0.00,,,0.00,Wunderground v.1.15,2013-10-20 13:54:00,
2013-10-20 08:55:00,53.9,43.2,30.00,East,82,1.0,2.0,67,0.00,,,0.00,Wunderground v.1.15,2013-10-20 13:55:00,
2013-10-20 08:56:00,54.1,43.0,30.00,East,82,1.0,2.0,66,0.00,,,0.00,Wunderground v.1.15,2013-10-20 13:56:00,
2013-10-20 08:57:00,54.1,43.0,30.00,East,82,1.0,2.0,66,0.00,,,0.00,Wunderground v.1.15,2013-10-20 13:57:00,
2013-10-20 08:58:00,54.2,43.1,30.00,East,82,1.0,2.0,66,0.00,,,0.00,Wunderground v.1.15,2013-10-20 13:58:00,
2013-10-20 09:01:00,54.4,42.9,30.00,ESE,121,2.0,3.0,65,0.00,,,0.00,Wunderground v.1.15,2013-10-20 14:01:00,
2013-10-20 09:02:00,54.5,43.0,30.00,ESE,120,2.0,3.0,65,0.00,,,0.00,Wunderground v.1.15,2013-10-20 14:02:00,
2013-10-20 09:05:00,54.5,43.0,30.00,ESE,119,2.0,3.0,65,0.00,,,0.00,Wunderground v.1.15,2013-10-20 14:05:00,
2013-10-20 09:06:00,54.8,42.9,30.00,ESE,120,2.0,4.0,64,0.00,,,0.00,Wunderground v.1.15,2013-10-20 14:06:00,
2013-10-20 09:08:00,54.8,43.3,30.00,ESE,120,2.0,4.0,65,0.00,,,0.00,Wunderground v.1.15,2013-10-20 14:08:00,
2013-10-20 09:09:00,55.0,43.0,30.00,East,92,2.0,4.0,64,0.00,,,0.00,Wunderground v.1.15,2013-10-20 14:09:00,
2013-10-20 09:12:00,55.1,43.1,30.00,East,89,2.0,5.0,64,0.00,,,0.00,Wunderground v.1.15,2013-10-20 14:12:00,
2013-10-20 09:14:00,55.3,43.3,30.00,East,92,2.0,5.0,64,0.00,,,0.00,Wunderground v.1.15,2013-10-20 14:14:00,
2013-10-20 09:15:00,55.3,43.3,30.00,East,92,2.0,5.0,64,0.00,,,0.00,Wunderground v.1.15,2013-10-20 14:15:00,
2013-10-20 09:16:00,55.4,43.0,30.00,East,92,2.0,5.0,63,0.00,,,0.00,Wunderground v.1.15,2013-10-20 14:16:00,
2013-10-20 09:21:00,55.7,42.9,30.00,East,97,2.0,2.0,62,0.00,,,0.00,Wunderground v.1.15,2013-10-20 14:21:00,
2013-10-20 09:22:00,55.9,43.1,30.00,SE,126,2.0,3.0,62,0.00,,,0.00,Wunderground v.1.15,2013-10-20 14:22:00,
2013-10-20 09:23:00,56.0,43.2,30.00,SE,126,2.0,3.0,62,0.00,,,0.00,Wunderground v.1.15,2013-10-20 14:23:00,
2013-10-20 09:26:00,56.2,43.3,30.00,ESE,112,3.0,4.0,62,0.00,,,0.00,Wunderground v.1.15,2013-10-20 14:26:00,
2013-10-20 09:27:00,56.2,43.3,30.00,SE,128,2.0,7.0,62,0.00,,,0.00,Wunderground v.1.15,2013-10-20 14:27:00,
2013-10-20 09:28:00,56.2,43.3,30.00,SE,126,3.0,7.0,62,0.00,,,0.00,Wunderground v.1.15,2013-10-20 14:28:00,
2013-10-20 09:31:00,56.3,43.4,30.00,ESE,109,3.0,3.0,62,0.00,,,0.00,Wunderground v.1.15,2013-10-20 14:31:00,
2013-10-20 09:33:00,56.5,43.6,30.00,ESE,109,3.0,5.0,62,0.00,,,0.00,Wunderground v.1.15,2013-10-20 14:33:00,
2013-10-20 09:34:00,56.6,43.7,30.00,ESE,121,2.0,5.0,62,0.00,,,0.00,Wunderground v.1.15,2013-10-20 14:34:00,
2013-10-20 09:35:00,56.7,43.8,30.00,ESE,114,3.0,5.0,62,0.00,,,0.00,Wunderground v.1.15,2013-10-20 14:35:00,
2013-10-20 09:36:00,56.9,44.0,30.00,ESE,114,2.0,5.0,62,0.00,,,0.00,Wunderground v.1.15,2013-10-20 14:36:00,
2013-10-20 09:41:00,57.2,43.4,30.00,SE,124,3.0,6.0,60,0.00,,,0.00,Wunderground v.1.15,2013-10-20 14:41:00,
2013-10-20 09:42:00,57.2,43.0,30.00,SE,127,3.0,6.0,59,0.00,,,0.00,Wunderground v.1.15,2013-10-20 14:42:00,
2013-10-20 09:43:00,57.2,43.0,30.00,ESE,103,3.0,6.0,59,0.00,,,0.00,Wunderground v.1.15,2013-10-20 14:43:00,
2013-10-20 09:44:00,57.2,43.0,30.00,ESE,104,3.0,6.0,59,0.00,,,0.00,Wunderground v.1.15,2013-10-20 14:44:00,
2013-10-20 09:45:00,57.3,43.5,30.00,SE,128,3.0,6.0,60,0.00,,,0.00,Wunderground v.1.15,2013-10-20 14:45:00,
2013-10-20 09:48:00,57.6,43.4,30.01,ESE,123,4.0,6.0,59,0.00,,,0.00,Wunderground v.1.15,2013-10-20 14:48:00,
2013-10-20 09:51:00,57.6,43.4,30.01,ESE,113,4.0,6.0,59,0.00,,,0.00,Wunderground v.1.15,2013-10-20 14:51:00,
2013-10-20 09:53:00,57.8,43.6,30.01,SSE,152,4.0,6.0,59,0.00,,,0.00,Wunderground v.1.15,2013-10-20 14:53:00,
2013-10-20 09:55:00,58.0,43.7,30.01,SE,137,4.0,7.0,59,0.00,,,0.00,Wunderground v.1.15,2013-10-20 14:55:00,
2013-10-20 09:56:00,58.1,43.4,30.01,SE,124,5.0,7.0,58,0.00,,,0.00,Wunderground v.1.15,2013-10-20 14:56:00,
2013-10-20 09:57:00,58.1,43.4,30.01,SSE,147,5.0,7.0,58,0.00,,,0.00,Wunderground v.1.15,2013-10-20 14:57:00,
2013-10-20 09:58:00,58.1,42.9,30.01,SSE,164,5.0,8.0,57,0.00,,,0.00,Wunderground v.1.15,2013-10-20 14:58:00,
2013-10-20 09:59:00,58.1,42.5,30.01,ESE,109,5.0,8.0,56,0.00,,,0.00,Wunderground v.1.15,2013-10-20 14:59:00,
2013-10-20 10:03:00,58.1,42.0,30.01,ESE,119,5.0,10.0,55,0.00,,,0.00,Wunderground v.1.15,2013-10-20 15:03:00,
2013-10-20 10:05:00,58.1,42.0,30.01,ESE,104,6.0,10.0,55,0.00,,,0.00,Wunderground v.1.15,2013-10-20 15:05:00,
2013-10-20 10:08:00,58.0,42.4,30.01,ESE,117,6.0,10.0,56,0.00,,,0.00,Wunderground v.1.15,2013-10-20 15:08:00,
2013-10-20 10:09:00,58.0,42.4,30.01,ESE,120,6.0,10.0,56,0.00,,,0.00,Wunderground v.1.15,2013-10-20 15:09:00,
2013-10-20 10:11:00,58.1,42.9,30.01,SE,134,6.0,6.0,57,0.00,,,0.00,Wunderground v.1.15,2013-10-20 15:11:00,
2013-10-20 10:13:00,58.3,43.1,30.01,ESE,119,6.0,6.0,57,0.00,,,0.00,Wunderground v.1.15,2013-10-20 15:13:00,
2013-10-20 10:14:00,58.6,43.4,30.01,ESE,120,5.0,6.0,57,0.00,,,0.00,Wunderground v.1.15,2013-10-20 15:14:00,
2013-10-20 10:15:00,58.7,43.5,30.01,ESE,114,5.0,6.0,57,0.00,,,0.00,Wunderground v.1.15,2013-10-20 15:15:00,
2013-10-20 10:17:00,58.9,43.7,30.01,East,89,5.0,6.0,57,0.00,,,0.00,Wunderground v.1.15,2013-10-20 15:17:00,
2013-10-20 10:21:00,59.0,43.3,30.01,SE,130,4.0,6.0,56,0.00,,,0.00,Wunderground v.1.15,2013-10-20 15:21:00,
2013-10-20 10:23:00,59.2,43.5,30.01,SE,136,4.0,5.0,56,0.00,,,0.00,Wunderground v.1.15,2013-10-20 15:23:00,
2013-10-20 10:24:00,59.2,43.5,30.01,SE,136,4.0,5.0,56,0.00,,,0.00,Wunderground v.1.15,2013-10-20 15:24:00,
2013-10-20 10:26:00,59.5,44.2,30.01,SE,136,3.0,5.0,57,0.00,,,0.00,Wunderground v.1.15,2013-10-20 15:26:00,
2013-10-20 10:31:00,59.3,42.6,30.01,ESE,123,4.0,7.0,54,0.00,,,0.00,Wunderground v.1.15,2013-10-20 15:31:00,
2013-10-20 10:33:00,59.3,43.1,30.01,South,174,4.0,5.0,55,0.00,,,0.00,Wunderground v.1.15,2013-10-20 15:33:00,
2013-10-20 10:34:00,59.5,43.3,30.01,SSE,160,4.0,5.0,55,0.00,,,0.00,Wunderground v.1.15,2013-10-20 15:34:00,
2013-10-20 10:35:00,59.6,43.4,30.01,SE,141,4.0,5.0,55,0.00,,,0.00,Wunderground v.1.15,2013-10-20 15:35:00,
2013-10-20 10:36:00,59.6,43.4,30.01,SE,143,4.0,5.0,55,0.00,,,0.00,Wunderground v.1.15,2013-10-20 15:36:00,
2013-10-20 10:37:00,59.8,43.1,30.01,SE,143,4.0,5.0,54,0.00,,,0.00,Wunderground v.1.15,2013-10-20 15:37:00,
2013-10-20 10:42:00,60.1,42.9,30.01,ESE,117,4.0,5.0,53,0.00,,,0.00,Wunderground v.1.15,2013-10-20 15:42:00,
2013-10-20 10:44:00,60.1,43.4,30.01,SE,124,4.0,6.0,54,0.00,,,0.00,Wunderground v.1.15,2013-10-20 15:44:00,
2013-10-20 10:45:00,60.1,42.9,30.01,ESE,109,4.0,6.0,53,0.00,,,0.00,Wunderground v.1.15,2013-10-20 15:45:00,
2013-10-20 10:48:00,60.5,43.3,30.00,ESE,106,4.0,6.0,53,0.00,,,0.00,Wunderground v.1.15,2013-10-20 15:48:00,
2013-10-20 10:51:00,60.7,43.5,30.00,East,99,4.0,6.0,53,0.00,,,0.00,Wunderground v.1.15,2013-10-20 15:51:00,
2013-10-20 10:52:00,60.7,43.5,30.00,ESE,112,4.0,5.0,53,0.00,,,0.00,Wunderground v.1.15,2013-10-20 15:52:00,
2013-10-20 10:54:00,60.9,43.1,30.00,SE,133,4.0,7.0,52,0.00,,,0.00,Wunderground v.1.15,2013-10-20 15:54:00,
2013-10-20 10:55:00,60.9,43.1,30.00,SE,143,4.0,11.0,52,0.00,,,0.00,Wunderground v.1.15,2013-10-20 15:55:00,
2013-10-20 10:57:00,60.7,42.5,30.00,ESE,116,5.0,11.0,51,0.00,,,0.00,Wunderground v.1.15,2013-10-20 15:57:00,
2013-10-20 10:58:00,60.7,43.0,30.00,SE,128,5.0,11.0,52,0.00,,,0.00,Wunderground v.1.15,2013-10-20 15:58:00,
2013-10-20 11:00:00,60.7,42.5,30.00,SE,128,5.0,12.0,51,0.00,,,0.00,Wunderground v.1.15,2013-10-20 16:00:00,
2013-10-20 11:02:00,60.5,42.8,30.00,SE,127,6.0,12.0,52,0.00,,,0.00,Wunderground v.1.15,2013-10-20 16:02:00,
2013-10-20 11:03:00,60.7,43.0,30.00,SE,144,6.0,12.0,52,0.00,,,0.00,Wunderground v.1.15,2013-10-20 16:03:00,
2013-10-20 11:06:00,60.7,43.0,30.00,ESE,123,5.0,12.0,52,0.00,,,0.00,Wunderground v.1.15,2013-10-20 16:06:00,
2013-10-20 11:07:00,60.7,42.5,30.00,ESE,116,5.0,12.0,51,0.00,,,0.00,Wunderground v.1.15,2013-10-20 16:07:00,
2013-10-20 11:09:00,61.0,42.7,30.00,SSE,148,5.0,12.0,51,0.00,,,0.00,Wunderground v.1.15,2013-10-20 16:09:00,
2013-10-20 11:11:00,61.2,42.9,30.00,ESE,112,5.0,5.0,51,0.00,,,0.00,Wunderground v.1.15,2013-10-20 16:11:00,
2013-10-20 11:12:00,61.3,43.0,30.00,ESE,113,5.0,5.0,51,0.00,,,0.00,Wunderground v.1.15,2013-10-20 16:12:00,
2013-10-20 11:14:00,61.5,43.2,30.00,ESE,114,4.0,6.0,51,0.00,,,0.00,Wunderground v.1.15,2013-10-20 16:14:00,
2013-10-20 11:18:00,62.0,43.7,30.00,SE,138,4.0,6.0,51,0.00,,,0.00,Wunderground v.1.15,2013-10-20 16:18:00,
2013-10-20 11:20:00,62.4,44.0,30.00,SE,141,3.0,3.0,51,0.00,,,0.00,Wunderground v.1.15,2013-10-20 16:20:00,
2013-10-20 11:22:00,62.4,43.5,30.00,South,188,3.0,10.0,50,0.00,,,0.00,Wunderground v.1.15,2013-10-20 16:22:00,
2013-10-20 11:24:00,62.7,43.3,30.00,South,169,3.0,10.0,49,0.00,,,0.00,Wunderground v.1.15,2013-10-20 16:24:00,
2013-10-20 11:25:00,62.6,43.2,30.00,ESE,116,3.0,10.0,49,0.00,,,0.00,Wunderground v.1.15,2013-10-20 16:25:00,
2013-10-20 11:27:00,62.7,43.3,30.00,South,184,3.0,10.0,49,0.00,,,0.00,Wunderground v.1.15,2013-10-20 16:27:00,
2013-10-20 11:28:00,62.7,43.8,30.00,SSW,192,3.0,10.0,50,0.00,,,0.00,Wunderground v.1.15,2013-10-20 16:28:00,
2013-10-20 11:29:00,62.7,42.7,30.00,South,178,3.0,10.0,48,0.00,,,0.00,Wunderground v.1.15,2013-10-20 16:29:00,
2013-10-20 11:32:00,63.1,43.6,30.00,SSE,165,4.0,7.0,49,0.00,,,0.00,Wunderground v.1.15,2013-10-20 16:32:00,
2013-10-20 11:33:00,63.1,43.6,29.99,SSW,195,3.0,7.0,49,0.00,,,0.00,Wunderground v.1.15,2013-10-20 16:33:00,
2013-10-20 11:36:00,63.4,43.4,29.99,SE,143,4.0,7.0,48,0.00,,,0.00,Wunderground v.1.15,2013-10-20 16:36:00,
2013-10-20 11:37:00,63.4,43.4,29.99,SE,126,4.0,7.0,48,0.00,,,0.00,Wunderground v.1.15,2013-10-20 16:37:00,
2013-10-20 11:39:00,63.4,43.9,29.99,ESE,109,3.0,7.0,49,0.00,,,0.00,Wunderground v.1.15,2013-10-20 16:39:00,
2013-10-20 11:40:00,63.5,44.0,29.99,SE,128,4.0,5.0,49,0.00,,,0.00,Wunderground v.1.15,2013-10-20 16:40:00,
2013-10-20 11:42:00,63.5,44.0,29.99,ESE,119,4.0,5.0,49,0.00,,,0.00,Wunderground v.1.15,2013-10-20 16:42:00,
2013-10-20 11:44:00,63.7,44.2,29.99,ESE,117,4.0,5.0,49,0.00,,,0.00,Wunderground v.1.15,2013-10-20 16:44:00,
2013-10-20 11:46:00,63.7,43.6,29.99,ESE,110,4.0,5.0,48,0.00,,,0.00,Wunderground v.1.15,2013-10-20 16:46:00,
2013-10-20 11:47:00,63.7,43.6,29.99,East,92,4.0,5.0,48,0.00,,,0.00,Wunderground v.1.15,2013-10-20 16:47:00,
2013-10-20 11:51:00,63.7,43.6,29.99,SW,223,3.0,4.0,48,0.00,,,0.00,Wunderground v.1.15,2013-10-20 16:51:00,
2013-10-20 11:52:00,63.9,43.8,29.99,South,191,3.0,4.0,48,0.00,,,0.00,Wunderground v.1.15,2013-10-20 16:52:00,
2013-10-20 11:53:00,64.0,43.4,29.99,SSW,192,3.0,4.0,47,0.00,,,0.00,Wunderground v.1.15,2013-10-20 16:53:00,
2013-10-20 11:54:00,64.2,43.0,29.99,SW,223,4.0,4.0,46,0.00,,,0.00,Wunderground v.1.15,2013-10-20 16:54:00,
2013-10-20 11:57:00,64.5,43.8,29.99,SSW,192,3.0,4.0,47,0.00,,,0.00,Wunderground v.1.15,2013-10-20 16:57:00,
2013-10-20 11:59:00,64.8,44.1,29.99,South,184,3.0,4.0,47,0.00,,,0.00,Wunderground v.1.15,2013-10-20 16:59:00,
2013-10-20 12:00:00,65.0,44.3,29.99,SSW,193,3.0,7.0,47,0.00,,,0.00,Wunderground v.1.15,2013-10-20 17:00:00,
2013-10-20 12:02:00,65.2,43.9,29.99,SSE,167,4.0,7.0,46,0.00,,,0.00,Wunderground v.1.15,2013-10-20 17:02:00,
2013-10-20 12:04:00,65.2,43.3,29.98,SSE,168,3.0,7.0,45,0.00,,,0.00,Wunderground v.1.15,2013-10-20 17:04:00,
2013-10-20 12:06:00,65.2,43.9,29.98,South,175,4.0,7.0,46,0.00,,,0.00,Wunderground v.1.15,2013-10-20 17:06:00,
2013-10-20 12:07:00,65.3,44.0,29.98,SW,216,3.0,7.0,46,0.00,,,0.00,Wunderground v.1.15,2013-10-20 17:07:00,
2013-10-20 12:08:00,65.5,43.6,29.98,SSE,161,3.0,7.0,45,0.00,,,0.00,Wunderground v.1.15,2013-10-20 17:08:00,
2013-10-20 12:10:00,65.2,43.9,29.98,South,169,3.0,3.0,46,0.00,,,0.00,Wunderground v.1.15,2013-10-20 17:10:00,
2013-10-20 12:12:00,65.2,44.5,29.98,SSE,168,3.0,5.0,47,0.00,,,0.00,Wunderground v.1.15,2013-10-20 17:12:00,
2013-10-20 12:14:00,65.0,44.3,29.98,South,175,4.0,7.0,47,0.00,,,0.00,Wunderground v.1.15,2013-10-20 17:14:00,
2013-10-20 12:15:00,65.2,44.5,29.98,SSE,167,4.0,7.0,47,0.00,,,0.00,Wunderground v.1.15,2013-10-20 17:15:00,
2013-10-20 12:17:00,65.3,44.0,29.98,SE,128,4.0,7.0,46,0.00,,,0.00,Wunderground v.1.15,2013-10-20 17:17:00,
2013-10-20 12:19:00,65.5,44.2,29.98,SSW,212,4.0,7.0,46,0.00,,,0.00,Wunderground v.1.15,2013-10-20 17:19:00,
2013-10-20 12:21:00,65.5,44.2,29.98,SSE,152,5.0,5.0,46,0.00,,,0.00,Wunderground v.1.15,2013-10-20 17:21:00,
2013-10-20 12:22:00,65.3,44.0,29.98,SSE,168,5.0,5.0,46,0.00,,,0.00,Wunderground v.1.15,2013-10-20 17:22:00,
2013-10-20 12:25:00,65.6,44.8,29.98,South,185,5.0,7.0,47,0.00,,,0.00,Wunderground v.1.15,2013-10-20 17:25:00,
2013-10-20 12:26:00,65.8,45.0,29.98,South,185,5.0,7.0,47,0.00,,,0.00,Wunderground v.1.15,2013-10-20 17:26:00,
2013-10-20 12:27:00,66.0,45.2,29.98,South,185,4.0,7.0,47,0.00,,,0.00,Wunderground v.1.15,2013-10-20 17:27:00,
2013-10-20 12:29:00,66.0,44.0,29.98,SSE,162,5.0,10.0,45,0.00,,,0.00,Wunderground v.1.15,2013-10-20 17:29:00,
2013-10-20 12:32:00,65.5,44.2,29.98,SE,138,5.0,5.0,46,0.00,,,0.00,Wunderground v.1.15,2013-10-20 17:32:00,
2013-10-20 12:34:00,65.5,44.7,29.97,ESE,121,4.0,5.0,47,0.00,,,0.00,Wunderground v.1.15,2013-10-20 17:34:00,
2013-10-20 12:35:00,65.8,44.4,29.97,South,175,4.0,5.0,46,0.00,,,0.00,Wunderground v.1.15,2013-10-20 17:35:00,
2013-10-20 12:38:00,66.0,44.0,29.97,SSE,152,4.0,5.0,45,0.00,,,0.00,Wunderground v.1.15,2013-10-20 17:38:00,
2013-10-20 12:41:00,66.3,44.9,29.97,SW,216,4.0,4.0,46,0.00,,,0.00,Wunderground v.1.15,2013-10-20 17:41:00,
2013-10-20 12:42:00,66.4,45.5,29.97,South,174,3.0,4.0,47,0.00,,,0.00,Wunderground v.1.15,2013-10-20 17:42:00,
2013-10-20 12:44:00,66.6,44.6,29.97,SSW,195,3.0,6.0,45,0.00,,,0.00,Wunderground v.1.15,2013-10-20 17:44:00,
2013-10-20 12:45:00,66.8,45.3,29.97,SSE,168,3.0,6.0,46,0.00,,,0.00,Wunderground v.1.15,2013-10-20 17:45:00,
2013-10-20 12:48:00,66.8,44.8,29.96,SE,141,3.0,7.0,45,0.00,,,0.00,Wunderground v.1.15,2013-10-20 17:48:00,
2013-10-20 12:49:00,66.8,44.8,29.96,SE,138,3.0,7.0,45,0.00,,,0.00,Wunderground v.1.15,2013-10-20 17:49:00,
2013-10-20 12:51:00,67.1,45.6,29.96,SE,140,3.0,3.0,46,0.00,,,0.00,Wunderground v.1.15,2013-10-20 17:51:00,
2013-10-20 12:52:00,67.3,45.8,29.96,SE,140,3.0,3.0,46,0.00,,,0.00,Wunderground v.1.15,2013-10-20 17:52:00,
2013-10-20 12:53:00,67.4,45.9,29.96,SE,134,3.0,6.0,46,0.00,,,0.00,Wunderground v.1.15,2013-10-20 17:53:00,
2013-10-20 12:55:00,67.4,44.1,29.96,SSE,162,3.0,6.0,43,0.00,,,0.00,Wunderground v.1.15,2013-10-20 17:55:00,
2013-10-20 12:56:00,67.4,45.3,29.96,South,191,4.0,6.0,45,0.00,,,0.00,Wunderground v.1.15,2013-10-20 17:56:00,
2013-10-20 12:59:00,67.6,44.9,29.96,South,181,4.0,6.0,44,0.00,,,0.00,Wunderground v.1.15,2013-10-20 17:59:00,
2013-10-20 13:00:00,67.8,44.5,29.96,South,181,4.0,4.0,43,0.00,,,0.00,Wunderground v.1.15,2013-10-20 18:00:00,
2013-10-20 13:03:00,67.8,44.5,29.95,SSE,152,4.0,5.0,43,0.00,,,0.00,Wunderground v.1.15,2013-10-20 18:03:00,
2013-10-20 13:05:00,67.3,44.0,29.95,South,189,4.0,7.0,43,0.00,,,0.00,Wunderground v.1.15,2013-10-20 18:05:00,
2013-10-20 13:07:00,67.3,44.6,29.95,South,179,4.0,7.0,44,0.00,,,0.00,Wunderground v.1.15,2013-10-20 18:07:00,
2013-10-20 13:10:00,67.3,44.6,29.95,SE,128,3.0,3.0,44,0.00,,,0.00,Wunderground v.1.15,2013-10-20 18:10:00,
2013-10-20 13:11:00,67.6,46.1,29.95,SSE,147,3.0,7.0,46,0.00,,,0.00,Wunderground v.1.15,2013-10-20 18:11:00,
2013-10-20 13:13:00,67.6,44.3,29.95,South,176,3.0,7.0,43,0.00,,,0.00,Wunderground v.1.15,2013-10-20 18:13:00,
2013-10-20 13:14:00,67.8,45.1,29.95,South,179,3.0,7.0,44,0.00,,,0.00,Wunderground v.1.15,2013-10-20 18:14:00,
2013-10-20 13:15:00,67.9,44.6,29.95,South,175,3.0,7.0,43,0.00,,,0.00,Wunderground v.1.15,2013-10-20 18:15:00,
2013-10-20 13:18:00,67.9,44.6,29.94,SSE,164,3.0,7.0,43,0.00,,,0.00,Wunderground v.1.15,2013-10-20 18:18:00,
2013-10-20 13:19:00,67.9,45.2,29.94,SE,134,3.0,7.0,44,0.00,,,0.00,Wunderground v.1.15,2013-10-20 18:19:00,
2013-10-20 13:20:00,67.8,44.5,29.94,SE,134,3.0,7.0,43,0.00,,,0.00,Wunderground v.1.15,2013-10-20 18:20:00,
2013-10-20 13:22:00,67.8,45.1,29.94,SE,144,3.0,7.0,44,0.00,,,0.00,Wunderground v.1.15,2013-10-20 18:22:00,
2013-10-20 13:24:00,67.8,45.1,29.94,SSE,152,3.0,7.0,44,0.00,,,0.00,Wunderground v.1.15,2013-10-20 18:24:00,
2013-10-20 13:25:00,68.3,45.5,29.94,SSE,162,3.0,7.0,44,0.00,,,0.00,Wunderground v.1.15,2013-10-20 18:25:00,
2013-10-20 13:27:00,68.3,45.5,29.94,South,171,3.0,7.0,44,0.00,,,0.00,Wunderground v.1.15,2013-10-20 18:27:00,
2013-10-20 13:29:00,68.6,44.6,29.94,SSW,212,4.0,7.0,42,0.00,,,0.00,Wunderground v.1.15,2013-10-20 18:29:00,
2013-10-20 13:30:00,68.6,44.6,29.94,South,179,3.0,3.0,42,0.00,,,0.00,Wunderground v.1.15,2013-10-20 18:30:00,
2013-10-20 13:35:00,68.9,44.2,29.94,SSW,208,4.0,5.0,41,0.00,,,0.00,Wunderground v.1.15,2013-10-20 18:35:00,
2013-10-20 13:40:00,69.8,44.4,29.94,SSE,162,3.0,3.0,40,0.00,,,0.00,Wunderground v.1.15,2013-10-20 18:40:00,
2013-10-20 13:41:00,69.8,44.4,29.94,SE,145,3.0,3.0,40,0.00,,,0.00,Wunderground v.1.15,2013-10-20 18:41:00,
2013-10-20 13:45:00,69.6,44.8,29.94,South,189,3.0,5.0,41,0.00,,,0.00,Wunderground v.1.15,2013-10-20 18:45:00,
2013-10-20 13:46:00,69.8,45.0,29.94,South,176,3.0,5.0,41,0.00,,,0.00,Wunderground v.1.15,2013-10-20 18:46:00,
2013-10-20 13:48:00,69.8,45.0,29.92,SSE,147,3.0,5.0,41,0.00,,,0.00,Wunderground v.1.15,2013-10-20 18:48:00,
2013-10-20 13:49:00,69.8,44.4,29.92,SSE,147,3.0,5.0,40,0.00,,,0.00,Wunderground v.1.15,2013-10-20 18:49:00,
2013-10-20 13:51:00,69.9,44.5,29.92,SSW,208,3.0,6.0,40,0.00,,,0.00,Wunderground v.1.15,2013-10-20 18:51:00,
2013-10-20 13:55:00,70.3,45.5,29.92,SW,234,3.0,6.0,41,0.00,,,0.00,Wunderground v.1.15,2013-10-20 18:55:00,
2013-10-20 13:56:00,70.3,45.5,29.92,SW,222,3.0,6.0,41,0.00,,,0.00,Wunderground v.1.15,2013-10-20 18:56:00,
2013-10-20 13:57:00,70.4,45.6,29.92,SSE,147,3.0,6.0,41,0.00,,,0.00,Wunderground v.1.15,2013-10-20 18:57:00,
2013-10-20 14:00:00,69.9,44.5,29.92,SSE,147,5.0,10.0,40,0.00,,,0.00,Wunderground v.1.15,2013-10-20 19:00:00,
2013-10-20 14:01:00,69.8,44.4,29.92,SE,136,5.0,10.0,40,0.00,,,0.00,Wunderground v.1.15,2013-10-20 19:01:00,
2013-10-20 14:05:00,69.6,43.5,29.92,SSE,151,5.0,10.0,39,0.00,,,0.00,Wunderground v.1.15,2013-10-20 19:05:00,
2013-10-20 14:06:00,69.6,44.2,29.92,SE,137,5.0,10.0,40,0.00,,,0.00,Wunderground v.1.15,2013-10-20 19:06:00,
2013-10-20 14:08:00,69.3,43.3,29.92,South,174,6.0,10.0,39,0.00,,,0.00,Wunderground v.1.15,2013-10-20 19:08:00,
2013-10-20 14:10:00,69.4,44.0,29.92,SSE,161,5.0,9.0,40,0.00,,,0.00,Wunderground v.1.15,2013-10-20 19:10:00,
2013-10-20 14:11:00,69.4,44.0,29.92,SE,140,5.0,11.0,40,0.00,,,0.00,Wunderground v.1.15,2013-10-20 19:11:00,
2013-10-20 14:12:00,69.4,44.0,29.92,SSW,195,5.0,11.0,40,0.00,,,0.00,Wunderground v.1.15,2013-10-20 19:12:00,
2013-10-20 14:15:00,69.8,45.0,29.92,SSE,150,5.0,11.0,41,0.00,,,0.00,Wunderground v.1.15,2013-10-20 19:15:00,
2013-10-20 14:16:00,70.1,45.3,29.92,SSE,148,5.0,11.0,41,0.00,,,0.00,Wunderground v.1.15,2013-10-20 19:16:00,
2013-10-20 14:20:00,70.4,44.9,29.91,SSW,210,5.0,5.0,40,0.00,,,0.00,Wunderground v.1.15,2013-10-20 19:20:00,
2013-10-20 14:22:00,70.4,44.3,29.91,South,174,4.0,5.0,39,0.00,,,0.00,Wunderground v.1.15,2013-10-20 19:22:00,
2013-10-20 14:24:00,70.4,44.9,29.91,SSW,193,4.0,8.0,40,0.00,,,0.00,Wunderground v.1.15,2013-10-20 19:24:00,
2013-10-20 14:25:00,70.6,44.4,29.91,South,184,5.0,11.0,39,0.00,,,0.00,Wunderground v.1.15,2013-10-20 19:25:00,
2013-10-20 14:26:00,70.8,44.6,29.91,South,189,5.0,11.0,39,0.00,,,0.00,Wunderground v.1.15,2013-10-20 19:26:00,
2013-10-20 14:28:00,70.9,44.7,29.91,South,188,5.0,11.0,39,0.00,,,0.00,Wunderground v.1.15,2013-10-20 19:28:00,
2013-10-20 14:30:00,71.3,45.1,29.91,SW,230,5.0,11.0,39,0.00,,,0.00,Wunderground v.1.15,2013-10-20 19:30:00,
2013-10-20 14:32:00,71.5,45.9,29.90,SSE,152,5.0,6.0,40,0.00,,,0.00,Wunderground v.1.15,2013-10-20 19:32:00,
2013-10-20 14:33:00,71.3,44.4,29.90,South,175,5.0,6.0,38,0.00,,,0.00,Wunderground v.1.15,2013-10-20 19:33:00,
2013-10-20 14:36:00,70.8,44.6,29.90,SSE,150,5.0,6.0,39,0.00,,,0.00,Wunderground v.1.15,2013-10-20 19:36:00,
2013-10-20 14:38:00,70.8,44.6,29.90,SSE,160,5.0,6.0,39,0.00,,,0.00,Wunderground v.1.15,2013-10-20 19:38:00,
2013-10-20 14:42:00,70.8,43.9,29.90,SSE,150,5.0,8.0,38,0.00,,,0.00,Wunderground v.1.15,2013-10-20 19:42:00,
2013-10-20 14:43:00,70.6,44.4,29.90,SSE,162,5.0,8.0,39,0.00,,,0.00,Wunderground v.1.15,2013-10-20 19:43:00,
2013-10-20 14:46:00,70.6,44.4,29.90,ESE,119,5.0,11.0,39,0.00,,,0.00,Wunderground v.1.15,2013-10-20 19:46:00,
2013-10-20 14:47:00,70.4,44.3,29.90,SSE,167,5.0,11.0,39,0.00,,,0.00,Wunderground v.1.15,2013-10-20 19:47:00,
2013-10-20 14:48:00,70.4,44.9,29.89,SSE,158,5.0,11.0,40,0.00,,,0.00,Wunderground v.1.15,2013-10-20 19:48:00,
2013-10-20 14:50:00,70.6,44.4,29.89,South,189,6.0,6.0,39,0.00,,,0.00,Wunderground v.1.15,2013-10-20 19:50:00,
2013-10-20 14:52:00,70.8,44.6,29.89,South,182,5.0,6.0,39,0.00,,,0.00,Wunderground v.1.15,2013-10-20 19:52:00,
2013-10-20 14:55:00,71.3,45.7,29.89,SSW,193,4.0,7.0,40,0.00,,,0.00,Wunderground v.1.15,2013-10-20 19:55:00,
2013-10-20 14:56:00,71.5,45.9,29.89,SSW,203,5.0,7.0,40,0.00,,,0.00,Wunderground v.1.15,2013-10-20 19:56:00,
2013-10-20 15:00:00,71.6,46.0,29.89,SE,134,4.0,5.0,40,0.00,,,0.00,Wunderground v.1.15,2013-10-20 20:00:00,
2013-10-20 15:02:00,71.5,46.6,29.88,South,185,5.0,6.0,41,0.00,,,0.00,Wunderground v.1.15,2013-10-20 20:02:00,
2013-10-20 15:04:00,71.6,46.6,29.88,SSE,160,5.0,6.0,41,0.00,,,0.00,Wunderground v.1.15,2013-10-20 20:04:00,
2013-10-20 15:05:00,71.8,46.8,29.88,SSW,206,5.0,6.0,41,0.00,,,0.00,Wunderground v.1.15,2013-10-20 20:05:00,
2013-10-20 15:06:00,72.0,47.0,29.88,SSW,192,5.0,6.0,41,0.00,,,0.00,Wunderground v.1.15,2013-10-20 20:06:00,
2013-10-20 15:09:00,72.0,46.3,29.88,SSW,198,5.0,6.0,40,0.00,,,0.00,Wunderground v.1.15,2013-10-20 20:09:00,
2013-10-20 15:10:00,72.0,47.0,29.88,SE,145,5.0,5.0,41,0.00,,,0.00,Wunderground v.1.15,2013-10-20 20:10:00,
2013-10-20 15:11:00,72.1,47.1,29.88,South,182,4.0,12.0,41,0.00,,,0.00,Wunderground v.1.15,2013-10-20 20:11:00,
2013-10-20 15:13:00,72.0,47.0,29.88,SSW,210,5.0,12.0,41,0.00,,,0.00,Wunderground v.1.15,2013-10-20 20:13:00,
2013-10-20 15:15:00,72.0,46.3,29.88,SSE,152,6.0,12.0,40,0.00,,,0.00,Wunderground v.1.15,2013-10-20 20:15:00,
2013-10-20 15:16:00,72.0,47.0,29.88,SSW,210,6.0,13.0,41,0.00,,,0.00,Wunderground v.1.15,2013-10-20 20:16:00,
2013-10-20 15:17:00,72.0,47.0,29.87,SSW,210,6.0,13.0,41,0.00,,,0.00,Wunderground v.1.15,2013-10-20 20:17:00,
2013-10-20 15:18:00,72.0,46.3,29.87,South,191,6.0,13.0,40,0.00,,,0.00,Wunderground v.1.15,2013-10-20 20:18:00,
2013-10-20 15:21:00,72.1,46.4,29.87,SSE,167,6.0,7.0,40,0.00,,,0.00,Wunderground v.1.15,2013-10-20 20:21:00,
2013-10-20 15:23:00,72.1,47.1,29.87,SSW,203,5.0,7.0,41,0.00,,,0.00,Wunderground v.1.15,2013-10-20 20:23:00,
2013-10-20 15:24:00,72.1,46.4,29.87,South,188,4.0,7.0,40,0.00,,,0.00,Wunderground v.1.15,2013-10-20 20:24:00,
2013-10-20 15:27:00,72.5,47.5,29.87,WSW,240,4.0,7.0,41,0.00,,,0.00,Wunderground v.1.15,2013-10-20 20:27:00,
2013-10-20 15:28:00,72.7,47.6,29.87,SW,219,4.0,7.0,41,0.00,,,0.00,Wunderground v.1.15,2013-10-20 20:28:00,
2013-10-20 15:30:00,72.5,47.5,29.87,SE,144,4.0,7.0,41,0.00,,,0.00,Wunderground v.1.15,2013-10-20 20:30:00,
2013-10-20 15:32:00,72.3,46.6,29.87,SSW,198,4.0,7.0,40,0.00,,,0.00,Wunderground v.1.15,2013-10-20 20:32:00,
2013-10-20 15:33:00,72.5,47.5,29.87,SSW,208,5.0,7.0,41,0.00,,,0.00,Wunderground v.1.15,2013-10-20 20:33:00,
2013-10-20 15:36:00,72.7,46.3,29.87,SW,216,5.0,7.0,39,0.00,,,0.00,Wunderground v.1.15,2013-10-20 20:36:00,
2013-10-20 15:37:00,72.7,47.0,29.87,SSE,152,5.0,7.0,40,0.00,,,0.00,Wunderground v.1.15,2013-10-20 20:37:00,
2013-10-20 15:42:00,72.5,47.5,29.87,South,186,5.0,11.0,41,0.00,,,0.00,Wunderground v.1.15,2013-10-20 20:42:00,
2013-10-20 15:43:00,72.3,47.3,29.87,SSE,165,5.0,11.0,41,0.00,,,0.00,Wunderground v.1.15,2013-10-20 20:43:00,
2013-10-20 15:44:00,72.1,46.4,29.87,SE,130,5.0,11.0,40,0.00,,,0.00,Wunderground v.1.15,2013-10-20 20:44:00,
2013-10-20 15:47:00,72.1,47.7,29.87,SSE,147,5.0,11.0,42,0.00,,,0.00,Wunderground v.1.15,2013-10-20 20:47:00,
2013-10-20 15:50:00,72.0,47.6,29.87,SE,133,6.0,14.0,42,0.00,,,0.00,Wunderground v.1.15,2013-10-20 20:50:00,
2013-10-20 15:51:00,71.6,46.6,29.87,ESE,120,7.0,14.0,41,0.00,,,0.00,Wunderground v.1.15,2013-10-20 20:51:00,
2013-10-20 15:55:00,71.6,47.9,29.87,SE,137,7.0,14.0,43,0.00,,,0.00,Wunderground v.1.15,2013-10-20 20:55:00,
2013-10-20 15:56:00,71.6,47.9,29.87,SSW,193,7.0,14.0,43,0.00,,,0.00,Wunderground v.1.15,2013-10-20 20:56:00,
2013-10-20 15:57:00,71.8,48.1,29.87,SW,230,7.0,14.0,43,0.00,,,0.00,Wunderground v.1.15,2013-10-20 20:57:00,
2013-10-20 15:58:00,72.0,47.6,29.87,WSW,253,7.0,14.0,42,0.00,,,0.00,Wunderground v.1.15,2013-10-20 20:58:00,
2013-10-20 16:02:00,72.3,47.9,29.86,SSE,148,5.0,8.0,42,0.00,,,0.00,Wunderground v.1.15,2013-10-20 21:02:00,
2013-10-20 16:04:00,72.3,48.5,29.86,South,189,6.0,9.0,43,0.00,,,0.00,Wunderground v.1.15,2013-10-20 21:04:00,
2013-10-20 16:05:00,72.5,48.7,29.86,SSE,167,6.0,9.0,43,0.00,,,0.00,Wunderground v.1.15,2013-10-20 21:05:00,
2013-10-20 16:07:00,72.7,48.3,29.86,SW,234,6.0,9.0,42,0.00,,,0.00,Wunderground v.1.15,2013-10-20 21:07:00,
2013-10-20 16:10:00,72.7,47.6,29.86,SSW,199,5.0,5.0,41,0.00,,,0.00,Wunderground v.1.15,2013-10-20 21:10:00,
2013-10-20 16:11:00,72.8,49.0,29.86,SW,229,5.0,5.0,43,0.00,,,0.00,Wunderground v.1.15,2013-10-20 21:11:00,
2013-10-20 16:12:00,73.0,49.2,29.86,WSW,241,5.0,6.0,43,0.00,,,0.00,Wunderground v.1.15,2013-10-20 21:12:00,
2013-10-20 16:14:00,73.0,48.5,29.86,South,175,5.0,9.0,42,0.00,,,0.00,Wunderground v.1.15,2013-10-20 21:14:00,
2013-10-20 16:16:00,72.8,49.0,29.86,SE,141,5.0,9.0,43,0.00,,,0.00,Wunderground v.1.15,2013-10-20 21:16:00,
2013-10-20 16:18:00,73.0,49.2,29.85,SSW,193,4.0,9.0,43,0.00,,,0.00,Wunderground v.1.15,2013-10-20 21:18:00,
2013-10-20 16:20:00,73.2,50.0,29.85,SW,230,4.0,6.0,44,0.00,,,0.00,Wunderground v.1.15,2013-10-20 21:20:00,
2013-10-20 16:22:00,73.3,50.1,29.85,South,176,4.0,11.0,44,0.00,,,0.00,Wunderground v.1.15,2013-10-20 21:22:00,
2013-10-20 16:23:00,73.2,49.4,29.85,SSE,161,4.0,11.0,43,0.00,,,0.00,Wunderground v.1.15,2013-10-20 21:23:00,
2013-10-20 16:27:00,73.3,49.4,29.85,South,184,4.0,11.0,43,0.00,,,0.00,Wunderground v.1.15,2013-10-20 21:27:00,
2013-10-20 16:28:00,73.5,50.2,29.85,SW,233,4.0,11.0,44,0.00,,,0.00,Wunderground v.1.15,2013-10-20 21:28:00,
2013-10-20 16:30:00,73.5,49.6,29.85,South,179,4.0,11.0,43,0.00,,,0.00,Wunderground v.1.15,2013-10-20 21:30:00,
2013-10-20 16:34:00,73.3,49.4,29.85,South,179,4.0,8.0,43,0.00,,,0.00,Wunderground v.1.15,2013-10-20 21:34:00,
2013-10-20 16:35:00,73.2,50.0,29.85,South,181,3.0,8.0,44,0.00,,,0.00,Wunderground v.1.15,2013-10-20 21:35:00,
2013-10-20 16:36:00,73.3,50.1,29.85,South,178,3.0,8.0,44,0.00,,,0.00,Wunderground v.1.15,2013-10-20 21:36:00,
2013-10-20 16:37:00,73.3,50.1,29.85,SSE,165,3.0,8.0,44,0.00,,,0.00,Wunderground v.1.15,2013-10-20 21:37:00,
2013-10-20 16:40:00,73.2,50.6,29.85,SSE,157,3.0,6.0,45,0.00,,,0.00,Wunderground v.1.15,2013-10-20 21:40:00,
2013-10-20 16:42:00,73.0,50.4,29.85,South,176,4.0,6.0,45,0.00,,,0.00,Wunderground v.1.15,2013-10-20 21:42:00,
2013-10-20 16:44:00,72.8,50.2,29.85,SSE,160,4.0,6.0,45,0.00,,,0.00,Wunderground v.1.15,2013-10-20 21:44:00,
2013-10-20 16:45:00,72.8,50.8,29.85,SW,222,4.0,6.0,46,0.00,,,0.00,Wunderground v.1.15,2013-10-20 21:45:00,
2013-10-20 16:46:00,72.8,50.8,29.85,South,191,4.0,6.0,46,0.00,,,0.00,Wunderground v.1.15,2013-10-20 21:46:00,
2013-10-20 16:47:00,72.8,50.2,29.85,South,182,4.0,6.0,45,0.00,,,0.00,Wunderground v.1.15,2013-10-20 21:47:00,
2013-10-20 16:51:00,72.8,50.2,29.85,SSE,158,3.0,3.0,45,0.00,,,0.00,Wunderground v.1.15,2013-10-20 21:51:00,
2013-10-20 16:52:00,72.8,50.8,29.85,South,188,3.0,3.0,46,0.00,,,0.00,Wunderground v.1.15,2013-10-20 21:52:00,
2013-10-20 16:53:00,73.0,51.0,29.85,South,188,2.0,3.0,46,0.00,,,0.00,Wunderground v.1.15,2013-10-20 21:53:00,
2013-10-20 16:55:00,73.2,50.6,29.85,SE,145,2.0,10.0,45,0.00,,,0.00,Wunderground v.1.15,2013-10-20 21:55:00,
2013-10-20 16:56:00,73.0,51.0,29.85,SE,137,2.0,10.0,46,0.00,,,0.00,Wunderground v.1.15,2013-10-20 21:56:00,
2013-10-20 16:57:00,73.0,51.0,29.85,SSE,168,2.0,10.0,46,0.00,,,0.00,Wunderground v.1.15,2013-10-20 21:57:00,
2013-10-20 16:58:00,72.7,50.7,29.85,South,181,2.0,10.0,46,0.00,,,0.00,Wunderground v.1.15,2013-10-20 21:58:00,
2013-10-20 17:00:00,72.5,51.1,29.85,South,174,2.0,7.0,47,0.00,,,0.00,Wunderground v.1.15,2013-10-20 22:00:00,
2013-10-20 17:01:00,72.3,50.9,29.85,South,169,3.0,7.0,47,0.00,,,0.00,Wunderground v.1.15,2013-10-20 22:01:00,
2013-10-20 17:04:00,72.1,50.8,29.84,South,181,3.0,7.0,47,0.00,,,0.00,Wunderground v.1.15,2013-10-20 22:04:00,
2013-10-20 17:05:00,72.1,50.8,29.84,South,179,3.0,7.0,47,0.00,,,0.00,Wunderground v.1.15,2013-10-20 22:05:00,
2013-10-20 17:06:00,72.3,51.5,29.84,SW,216,3.0,7.0,48,0.00,,,0.00,Wunderground v.1.15,2013-10-20 22:06:00,
2013-10-20 17:10:00,72.3,51.5,29.84,SSW,193,3.0,3.0,48,0.00,,,0.00,Wunderground v.1.15,2013-10-20 22:10:00,
2013-10-20 17:13:00,72.5,51.7,29.84,SW,219,3.0,6.0,48,0.00,,,0.00,Wunderground v.1.15,2013-10-20 22:13:00,
2013-10-20 17:16:00,72.3,51.5,29.84,SSW,193,3.0,6.0,48,0.00,,,0.00,Wunderground v.1.15,2013-10-20 22:16:00,
2013-10-20 17:17:00,72.3,51.5,29.84,SSW,199,3.0,6.0,48,0.00,,,0.00,Wunderground v.1.15,2013-10-20 22:17:00,
2013-10-20 17:23:00,72.1,51.9,29.84,South,176,2.0,3.0,49,0.00,,,0.00,Wunderground v.1.15,2013-10-20 22:23:00,
2013-10-20 17:25:00,72.1,51.9,29.84,South,178,2.0,5.0,49,0.00,,,0.00,Wunderground v.1.15,2013-10-20 22:25:00,
2013-10-20 17:26:00,72.0,51.2,29.84,South,172,2.0,5.0,48,0.00,,,0.00,Wunderground v.1.15,2013-10-20 22:26:00,
2013-10-20 17:28:00,72.0,51.8,29.84,SSE,147,2.0,8.0,49,0.00,,,0.00,Wunderground v.1.15,2013-10-20 22:28:00,
2013-10-20 17:30:00,72.0,51.2,29.84,South,172,2.0,4.0,48,0.00,,,0.00,Wunderground v.1.15,2013-10-20 22:30:00,
2013-10-20 17:31:00,72.1,51.3,29.84,South,191,2.0,6.0,48,0.00,,,0.00,Wunderground v.1.15,2013-10-20 22:31:00,
2013-10-20 17:32:00,72.1,51.3,29.84,SSE,152,3.0,6.0,48,0.00,,,0.00,Wunderground v.1.15,2013-10-20 22:32:00,
2013-10-20 17:35:00,72.1,51.9,29.84,SE,141,3.0,6.0,49,0.00,,,0.00,Wunderground v.1.15,2013-10-20 22:35:00,
2013-10-20 17:36:00,72.1,51.3,29.84,SE,143,3.0,6.0,48,0.00,,,0.00,Wunderground v.1.15,2013-10-20 22:36:00,
2013-10-20 17:37:00,72.1,51.9,29.84,SSE,154,3.0,6.0,49,0.00,,,0.00,Wunderground v.1.15,2013-10-20 22:37:00,
2013-10-20 17:38:00,72.3,52.1,29.84,South,169,3.0,6.0,49,0.00,,,0.00,Wunderground v.1.15,2013-10-20 22:38:00,
2013-10-20 17:40:00,72.5,52.2,29.84,South,184,2.0,6.0,49,0.00,,,0.00,Wunderground v.1.15,2013-10-20 22:40:00,
2013-10-20 17:41:00,72.5,51.7,29.84,SSW,199,3.0,3.0,48,0.00,,,0.00,Wunderground v.1.15,2013-10-20 22:41:00,
2013-10-20 17:45:00,72.5,51.7,29.84,SSW,192,3.0,6.0,48,0.00,,,0.00,Wunderground v.1.15,2013-10-20 22:45:00,
2013-10-20 17:47:00,72.3,51.5,29.84,South,184,3.0,6.0,48,0.00,,,0.00,Wunderground v.1.15,2013-10-20 22:47:00,
2013-10-20 17:48:00,72.5,51.7,29.84,SSW,203,3.0,6.0,48,0.00,,,0.00,Wunderground v.1.15,2013-10-20 22:48:00,
2013-10-20 17:50:00,72.5,52.2,29.84,SW,215,3.0,6.0,49,0.00,,,0.00,Wunderground v.1.15,2013-10-20 22:50:00,
2013-10-20 17:51:00,72.3,51.5,29.84,South,189,4.0,6.0,48,0.00,,,0.00,Wunderground v.1.15,2013-10-20 22:51:00,
2013-10-20 17:54:00,72.3,52.1,29.84,SSW,202,3.0,6.0,49,0.00,,,0.00,Wunderground v.1.15,2013-10-20 22:54:00,
2013-10-20 17:55:00,72.3,52.1,29.84,South,179,3.0,8.0,49,0.00,,,0.00,Wunderground v.1.15,2013-10-20 22:55:00,
2013-10-20 17:56:00,72.1,51.3,29.84,SSW,198,3.0,8.0,48,0.00,,,0.00,Wunderground v.1.15,2013-10-20 22:56:00,
2013-10-20 17:57:00,72.1,51.9,29.84,South,184,3.0,8.0,49,0.00,,,0.00,Wunderground v.1.15,2013-10-20 22:57:00,
2013-10-20 18:00:00,72.0,51.8,29.84,SSE,168,4.0,6.0,49,0.00,,,0.00,Wunderground v.1.15,2013-10-20 23:00:00,
2013-10-20 18:01:00,71.8,52.2,29.84,South,175,3.0,6.0,50,0.00,,,0.00,Wunderground v.1.15,2013-10-20 23:01:00,
2013-10-20 18:02:00,71.8,52.2,29.83,SE,138,3.0,6.0,50,0.00,,,0.00,Wunderground v.1.15,2013-10-20 23:02:00,
2013-10-20 18:03:00,71.8,52.2,29.83,SSE,157,3.0,6.0,50,0.00,,,0.00,Wunderground v.1.15,2013-10-20 23:03:00,
2013-10-20 18:04:00,71.8,52.2,29.83,SSE,161,3.0,6.0,50,0.00,,,0.00,Wunderground v.1.15,2013-10-20 23:04:00,
2013-10-20 18:09:00,71.5,51.9,29.83,South,172,4.0,7.0,50,0.00,,,0.00,Wunderground v.1.15,2013-10-20 23:09:00,
2013-10-20 18:11:00,71.5,52.9,29.83,South,184,4.0,4.0,52,0.00,,,0.00,Wunderground v.1.15,2013-10-20 23:11:00,
2013-10-20 18:12:00,71.5,52.9,29.83,South,182,4.0,5.0,52,0.00,,,0.00,Wunderground v.1.15,2013-10-20 23:12:00,
2013-10-20 18:14:00,71.5,52.9,29.83,South,172,3.0,5.0,52,0.00,,,0.00,Wunderground v.1.15,2013-10-20 23:14:00,
2013-10-20 18:17:00,71.5,52.9,29.83,SSE,160,3.0,5.0,52,0.00,,,0.00,Wunderground v.1.15,2013-10-20 23:17:00,
2013-10-20 18:19:00,71.3,52.2,29.83,SSE,165,2.0,5.0,51,0.00,,,0.00,Wunderground v.1.15,2013-10-20 23:19:00,
2013-10-20 18:21:00,71.3,52.8,29.83,SSE,167,2.0,2.0,52,0.00,,,0.00,Wunderground v.1.15,2013-10-20 23:21:00,
2013-10-20 18:24:00,71.5,52.4,29.83,South,182,2.0,2.0,51,0.00,,,0.00,Wunderground v.1.15,2013-10-20 23:24:00,
2013-10-20 18:25:00,71.5,52.9,29.83,South,184,2.0,2.0,52,0.00,,,0.00,Wunderground v.1.15,2013-10-20 23:25:00,
2013-10-20 18:26:00,71.5,52.9,29.83,South,185,1.0,2.0,52,0.00,,,0.00,Wunderground v.1.15,2013-10-20 23:26:00,
2013-10-20 18:27:00,71.5,52.9,29.83,South,188,1.0,7.0,52,0.00,,,0.00,Wunderground v.1.15,2013-10-20 23:27:00,
2013-10-20 18:28:00,71.3,52.2,29.83,South,191,1.0,7.0,51,0.00,,,0.00,Wunderground v.1.15,2013-10-20 23:28:00,
2013-10-20 18:31:00,71.3,52.8,29.83,SSW,192,1.0,6.0,52,0.00,,,0.00,Wunderground v.1.15,2013-10-20 23:31:00,
2013-10-20 18:32:00,71.3,52.8,29.83,SSW,196,1.0,6.0,52,0.00,,,0.00,Wunderground v.1.15,2013-10-20 23:32:00,
2013-10-20 18:34:00,71.1,52.6,29.83,SSW,195,1.0,6.0,52,0.00,,,0.00,Wunderground v.1.15,2013-10-20 23:34:00,
2013-10-20 18:36:00,70.9,52.4,29.83,SSW,195,1.0,6.0,52,0.00,,,0.00,Wunderground v.1.15,2013-10-20 23:36:00,
2013-10-20 18:39:00,70.6,52.1,29.83,SSW,195,1.0,6.0,52,0.00,,,0.00,Wunderground v.1.15,2013-10-20 23:39:00,
2013-10-20 18:41:00,70.4,51.9,29.83,SSW,195,1.0,1.0,52,0.00,,,0.00,Wunderground v.1.15,2013-10-20 23:41:00,
2013-10-20 18:42:00,70.3,51.8,29.83,SSW,195,1.0,1.0,52,0.00,,,0.00,Wunderground v.1.15,2013-10-20 23:42:00,
2013-10-20 18:43:00,70.3,52.4,29.83,SSW,195,1.0,1.0,53,0.00,,,0.00,Wunderground v.1.15,2013-10-20 23:43:00,
2013-10-20 18:44:00,70.3,51.8,29.83,SSW,195,1.0,1.0,52,0.00,,,0.00,Wunderground v.1.15,2013-10-20 23:44:00,
2013-10-20 18:46:00,70.1,52.2,29.83,SSW,195,1.0,1.0,53,0.00,,,0.00,Wunderground v.1.15,2013-10-20 23:46:00,
2013-10-20 18:47:00,70.1,52.2,29.84,SSW,195,1.0,2.0,53,0.00,,,0.00,Wunderground v.1.15,2013-10-20 23:47:00,
2013-10-20 18:48:00,69.9,52.0,29.84,SSW,195,0.0,2.0,53,0.00,,,0.00,Wunderground v.1.15,2013-10-20 23:48:00,
2013-10-20 18:49:00,69.9,52.0,29.84,SSW,195,0.0,2.0,53,0.00,,,0.00,Wunderground v.1.15,2013-10-20 23:49:00,
2013-10-20 18:51:00,69.8,51.9,29.84,SSW,195,0.0,0.0,53,0.00,,,0.00,Wunderground v.1.15,2013-10-20 23:51:00,
2013-10-20 18:53:00,69.4,51.5,29.84,SSW,195,0.0,0.0,53,0.00,,,0.00,Wunderground v.1.15,2013-10-20 23:53:00,
2013-10-20 18:54:00,69.4,52.0,29.84,SSW,195,0.0,0.0,54,0.00,,,0.00,Wunderground v.1.15,2013-10-20 23:54:00,
2013-10-20 18:56:00,69.1,51.8,29.84,SSW,195,0.0,0.0,54,0.00,,,0.00,Wunderground v.1.15,2013-10-20 23:56:00,
2013-10-20 18:57:00,69.1,51.8,29.84,SSW,195,0.0,0.0,54,0.00,,,0.00,Wunderground v.1.15,2013-10-20 23:57:00,
2013-10-20 18:59:00,68.9,52.1,29.84,SSW,195,0.0,0.0,55,0.00,,,0.00,Wunderground v.1.15,2013-10-20 23:59:00,
2013-10-20 19:01:00,68.8,52.0,29.84,SSW,195,0.0,0.0,55,0.00,,,0.00,Wunderground v.1.15,2013-10-21 00:01:00,
2013-10-20 19:02:00,68.8,52.0,29.84,SSW,195,0.0,0.0,55,0.00,,,0.00,Wunderground v.1.15,2013-10-21 00:02:00,
2013-10-20 19:05:00,68.4,51.6,29.84,SSW,195,0.0,0.0,55,0.00,,,0.00,Wunderground v.1.15,2013-10-21 00:05:00,
2013-10-20 19:06:00,68.4,52.1,29.84,SSW,195,0.0,0.0,56,0.00,,,0.00,Wunderground v.1.15,2013-10-21 00:06:00,
2013-10-20 19:07:00,68.3,52.0,29.84,SSW,195,0.0,0.0,56,0.00,,,0.00,Wunderground v.1.15,2013-10-21 00:07:00,
2013-10-20 19:08:00,68.3,52.0,29.84,SSW,195,0.0,0.0,56,0.00,,,0.00,Wunderground v.1.15,2013-10-21 00:08:00,
2013-10-20 19:11:00,68.1,52.3,29.84,SSW,195,0.0,0.0,57,0.00,,,0.00,Wunderground v.1.15,2013-10-21 00:11:00,
2013-10-20 19:12:00,67.9,52.1,29.84,SSW,195,0.0,0.0,57,0.00,,,0.00,Wunderground v.1.15,2013-10-21 00:12:00,
2013-10-20 19:13:00,67.9,52.1,29.84,SSW,195,0.0,0.0,57,0.00,,,0.00,Wunderground v.1.15,2013-10-21 00:13:00,
2013-10-20 19:15:00,67.9,52.1,29.84,SSW,195,0.0,0.0,57,0.00,,,0.00,Wunderground v.1.15,2013-10-21 00:15:00,
2013-10-20 19:18:00,67.8,52.5,29.84,SSW,195,0.0,0.0,58,0.00,,,0.00,Wunderground v.1.15,2013-10-21 00:18:00,
2013-10-20 19:19:00,67.8,52.5,29.84,SSW,195,0.0,0.0,58,0.00,,,0.00,Wunderground v.1.15,2013-10-21 00:19:00,
2013-10-20 19:22:00,67.6,52.3,29.84,SSW,195,0.0,0.0,58,0.00,,,0.00,Wunderground v.1.15,2013-10-21 00:22:00,
2013-10-20 19:23:00,67.4,52.1,29.84,SSW,195,0.0,0.0,58,0.00,,,0.00,Wunderground v.1.15,2013-10-21 00:23:00,
2013-10-20 19:24:00,67.4,52.1,29.84,SSW,195,0.0,0.0,58,0.00,,,0.00,Wunderground v.1.15,2013-10-21 00:24:00,
2013-10-20 19:25:00,67.4,52.1,29.84,SSW,195,0.0,0.0,58,0.00,,,0.00,Wunderground v.1.15,2013-10-21 00:25:00,
2013-10-20 19:28:00,67.3,52.0,29.84,SSW,195,0.0,0.0,58,0.00,,,0.00,Wunderground v.1.15,2013-10-21 00:28:00,
2013-10-20 19:29:00,67.1,51.8,29.84,SSW,195,0.0,0.0,58,0.00,,,0.00,Wunderground v.1.15,2013-10-21 00:29:00,
2013-10-20 19:32:00,67.1,52.3,29.85,SSW,195,0.0,0.0,59,0.00,,,0.00,Wunderground v.1.15,2013-10-21 00:32:00,
2013-10-20 19:33:00,66.9,52.1,29.85,SSW,195,0.0,0.0,59,0.00,,,0.00,Wunderground v.1.15,2013-10-21 00:33:00,
2013-10-20 19:37:00,66.8,52.0,29.85,SSW,195,0.0,0.0,59,0.00,,,0.00,Wunderground v.1.15,2013-10-21 00:37:00,
2013-10-20 19:38:00,66.8,52.0,29.85,SSW,195,0.0,0.0,59,0.00,,,0.00,Wunderground v.1.15,2013-10-21 00:38:00,
2013-10-20 19:39:00,66.8,52.0,29.85,SSW,195,0.0,0.0,59,0.00,,,0.00,Wunderground v.1.15,2013-10-21 00:39:00,
2013-10-20 19:43:00,66.6,52.3,29.85,SSW,195,0.0,0.0,60,0.00,,,0.00,Wunderground v.1.15,2013-10-21 00:43:00,
2013-10-20 19:44:00,66.6,52.3,29.85,SSW,195,0.0,0.0,60,0.00,,,0.00,Wunderground v.1.15,2013-10-21 00:44:00,
2013-10-20 19:47:00,66.4,52.1,29.85,SSW,195,0.0,0.0,60,0.00,,,0.00,Wunderground v.1.15,2013-10-21 00:47:00,
2013-10-20 19:49:00,66.3,52.4,29.85,SSW,195,0.0,0.0,61,0.00,,,0.00,Wunderground v.1.15,2013-10-21 00:49:00,
2013-10-20 19:51:00,66.3,52.4,29.85,SSW,195,0.0,0.0,61,0.00,,,0.00,Wunderground v.1.15,2013-10-21 00:51:00,
2013-10-20 19:53:00,66.1,52.3,29.85,SSW,195,0.0,0.0,61,0.00,,,0.00,Wunderground v.1.15,2013-10-21 00:53:00,
2013-10-20 19:55:00,66.1,52.3,29.85,SSW,195,0.0,0.0,61,0.00,,,0.00,Wunderground v.1.15,2013-10-21 00:55:00,
2013-10-20 19:56:00,66.0,52.2,29.85,SSW,195,0.0,0.0,61,0.00,,,0.00,Wunderground v.1.15,2013-10-21 00:56:00,
2013-10-20 19:57:00,66.0,52.2,29.85,SSW,195,0.0,0.0,61,0.00,,,0.00,Wunderground v.1.15,2013-10-21 00:57:00,
2013-10-20 20:00:00,65.8,52.4,29.85,SSW,195,0.0,0.0,62,0.00,,,0.00,Wunderground v.1.15,2013-10-21 01:00:00,
2013-10-20 20:01:00,65.8,52.4,29.85,SSW,195,0.0,0.0,62,0.00,,,0.00,Wunderground v.1.15,2013-10-21 01:01:00,
2013-10-20 20:02:00,65.8,52.4,29.85,SSW,195,0.0,0.0,62,0.00,,,0.00,Wunderground v.1.15,2013-10-21 01:02:00,
2013-10-20 20:03:00,65.6,52.2,29.85,SSW,195,0.0,0.0,62,0.00,,,0.00,Wunderground v.1.15,2013-10-21 01:03:00,
2013-10-20 20:07:00,65.5,52.1,29.85,SSW,195,0.0,0.0,62,0.00,,,0.00,Wunderground v.1.15,2013-10-21 01:07:00,
2013-10-20 20:08:00,65.3,52.4,29.85,SSW,195,0.0,0.0,63,0.00,,,0.00,Wunderground v.1.15,2013-10-21 01:08:00,
2013-10-20 20:09:00,65.3,52.4,29.85,SSW,195,0.0,0.0,63,0.00,,,0.00,Wunderground v.1.15,2013-10-21 01:09:00,
2013-10-20 20:10:00,65.3,52.4,29.85,SSW,195,0.0,0.0,63,0.00,,,0.00,Wunderground v.1.15,2013-10-21 01:10:00,
2013-10-20 20:12:00,65.2,52.3,29.85,SSW,195,0.0,0.0,63,0.00,,,0.00,Wunderground v.1.15,2013-10-21 01:12:00,
2013-10-20 20:14:00,65.2,52.3,29.85,SSW,195,0.0,0.0,63,0.00,,,0.00,Wunderground v.1.15,2013-10-21 01:14:00,
2013-10-20 20:16:00,65.2,52.3,29.85,SSW,195,0.0,0.0,63,0.00,,,0.00,Wunderground v.1.15,2013-10-21 01:16:00,
2013-10-20 20:17:00,65.2,52.3,29.84,SSW,195,0.0,0.0,63,0.00,,,0.00,Wunderground v.1.15,2013-10-21 01:17:00,
2013-10-20 20:18:00,65.2,52.3,29.84,SSW,195,0.0,0.0,63,0.00,,,0.00,Wunderground v.1.15,2013-10-21 01:18:00,
2013-10-20 20:22:00,65.0,52.5,29.84,SSW,195,0.0,0.0,64,0.00,,,0.00,Wunderground v.1.15,2013-10-21 01:22:00,
2013-10-20 20:23:00,65.0,52.5,29.84,SSW,195,0.0,0.0,64,0.00,,,0.00,Wunderground v.1.15,2013-10-21 01:23:00,
2013-10-20 20:24:00,64.8,52.3,29.84,SSW,195,0.0,0.0,64,0.00,,,0.00,Wunderground v.1.15,2013-10-21 01:24:00,
2013-10-20 20:27:00,64.8,52.3,29.84,SSW,195,0.0,0.0,64,0.00,,,0.00,Wunderground v.1.15,2013-10-21 01:27:00,
2013-10-20 20:28:00,64.7,52.7,29.84,SSW,195,0.0,0.0,65,0.00,,,0.00,Wunderground v.1.15,2013-10-21 01:28:00,
2013-10-20 20:31:00,64.7,52.7,29.84,SSW,195,0.0,0.0,65,0.00,,,0.00,Wunderground v.1.15,2013-10-21 01:31:00,
2013-10-20 20:33:00,64.5,52.5,29.84,SSW,195,0.0,0.0,65,0.00,,,0.00,Wunderground v.1.15,2013-10-21 01:33:00,
2013-10-20 20:34:00,64.5,52.5,29.84,SSW,195,0.0,0.0,65,0.00,,,0.00,Wunderground v.1.15,2013-10-21 01:34:00,
2013-10-20 20:36:00,64.3,52.3,29.84,SSW,195,0.0,0.0,65,0.00,,,0.00,Wunderground v.1.15,2013-10-21 01:36:00,
2013-10-20 20:37:00,64.3,52.3,29.84,SSW,195,0.0,0.0,65,0.00,,,0.00,Wunderground v.1.15,2013-10-21 01:37:00,
2013-10-20 20:41:00,64.2,52.6,29.84,SSW,195,0.0,0.0,66,0.00,,,0.00,Wunderground v.1.15,2013-10-21 01:41:00,
2013-10-20 20:42:00,64.2,52.6,29.84,SSW,195,0.0,0.0,66,0.00,,,0.00,Wunderground v.1.15,2013-10-21 01:42:00,
2013-10-20 20:43:00,64.2,52.6,29.84,SSW,195,0.0,0.0,66,0.00,,,0.00,Wunderground v.1.15,2013-10-21 01:43:00,
2013-10-20 20:44:00,64.2,52.6,29.84,SSW,195,0.0,0.0,66,0.00,,,0.00,Wunderground v.1.15,2013-10-21 01:44:00,
2013-10-20 20:47:00,64.0,52.4,29.85,SSW,195,0.0,0.0,66,0.00,,,0.00,Wunderground v.1.15,2013-10-21 01:47:00,
2013-10-20 20:48:00,63.9,52.3,29.85,SSW,195,0.0,0.0,66,0.00,,,0.00,Wunderground v.1.15,2013-10-21 01:48:00,
2013-10-20 20:53:00,63.7,52.5,29.85,SSW,195,0.0,0.0,67,0.00,,,0.00,Wunderground v.1.15,2013-10-21 01:53:00,
2013-10-20 20:54:00,63.7,52.5,29.85,SSW,195,0.0,0.0,67,0.00,,,0.00,Wunderground v.1.15,2013-10-21 01:54:00,
2013-10-20 20:55:00,63.7,52.5,29.85,SSW,195,0.0,0.0,67,0.00,,,0.00,Wunderground v.1.15,2013-10-21 01:55:00,
2013-10-20 21:01:00,63.4,52.2,29.85,SSW,195,0.0,0.0,67,0.00,,,0.00,Wunderground v.1.15,2013-10-21 02:01:00,
2013-10-20 21:03:00,63.2,52.1,29.85,SSW,195,0.0,0.0,67,0.00,,,0.00,Wunderground v.1.15,2013-10-21 02:03:00,
2013-10-20 21:04:00,63.2,52.5,29.85,SSW,195,0.0,0.0,68,0.00,,,0.00,Wunderground v.1.15,2013-10-21 02:04:00,
2013-10-20 21:06:00,63.1,52.4,29.85,SSW,195,0.0,0.0,68,0.00,,,0.00,Wunderground v.1.15,2013-10-21 02:06:00,
2013-10-20 21:09:00,63.1,52.8,29.85,SSW,195,0.0,0.0,69,0.00,,,0.00,Wunderground v.1.15,2013-10-21 02:09:00,
2013-10-20 21:11:00,62.9,52.6,29.85,SSW,195,0.0,0.0,69,0.00,,,0.00,Wunderground v.1.15,2013-10-21 02:11:00,
2013-10-20 21:13:00,62.9,52.6,29.85,SSW,195,0.0,0.0,69,0.00,,,0.00,Wunderground v.1.15,2013-10-21 02:13:00,
2013-10-20 21:14:00,62.7,52.4,29.85,SSW,195,0.0,0.0,69,0.00,,,0.00,Wunderground v.1.15,2013-10-21 02:14:00,
2013-10-20 21:15:00,62.7,52.4,29.85,SSW,195,0.0,0.0,69,0.00,,,0.00,Wunderground v.1.15,2013-10-21 02:15:00,
2013-10-20 21:18:00,62.6,52.3,29.84,SSW,195,0.0,0.0,69,0.00,,,0.00,Wunderground v.1.15,2013-10-21 02:18:00,
2013-10-20 21:19:00,62.6,52.3,29.84,SSW,195,0.0,0.0,69,0.00,,,0.00,Wunderground v.1.15,2013-10-21 02:19:00,
2013-10-20 21:21:00,62.6,52.3,29.84,SSW,195,0.0,0.0,69,0.00,,,0.00,Wunderground v.1.15,2013-10-21 02:21:00,
2013-10-20 21:22:00,62.4,52.1,29.84,SSW,195,0.0,0.0,69,0.00,,,0.00,Wunderground v.1.15,2013-10-21 02:22:00,
2013-10-20 21:24:00,62.4,52.1,29.84,SSW,195,0.0,0.0,69,0.00,,,0.00,Wunderground v.1.15,2013-10-21 02:24:00,
2013-10-20 21:25:00,62.4,52.1,29.84,SSW,195,0.0,0.0,69,0.00,,,0.00,Wunderground v.1.15,2013-10-21 02:25:00,
2013-10-20 21:29:00,62.4,52.1,29.84,SSW,195,0.0,0.0,69,0.00,,,0.00,Wunderground v.1.15,2013-10-21 02:29:00,
2013-10-20 21:31:00,62.3,52.0,29.84,SSW,195,0.0,0.0,69,0.00,,,0.00,Wunderground v.1.15,2013-10-21 02:31:00,
2013-10-20 21:34:00,62.3,52.0,29.85,SSW,195,0.0,0.0,69,0.00,,,0.00,Wunderground v.1.15,2013-10-21 02:34:00,
2013-10-20 21:35:00,62.3,52.0,29.85,SSW,195,0.0,0.0,69,0.00,,,0.00,Wunderground v.1.15,2013-10-21 02:35:00,
2013-10-20 21:37:00,62.3,52.0,29.85,SSW,195,0.0,0.0,69,0.00,,,0.00,Wunderground v.1.15,2013-10-21 02:37:00,
2013-10-20 21:38:00,62.3,52.0,29.85,SSW,195,0.0,0.0,69,0.00,,,0.00,Wunderground v.1.15,2013-10-21 02:38:00,
2013-10-20 21:44:00,62.3,52.0,29.85,SSW,195,0.0,0.0,69,0.00,,,0.00,Wunderground v.1.15,2013-10-21 02:44:00,
2013-10-20 21:46:00,62.3,52.0,29.85,SSW,195,0.0,0.0,69,0.00,,,0.00,Wunderground v.1.15,2013-10-21 02:46:00,
2013-10-20 21:47:00,62.3,52.0,29.85,SSW,195,0.0,0.0,69,0.00,,,0.00,Wunderground v.1.15,2013-10-21 02:47:00,
2013-10-20 21:49:00,62.1,51.8,29.86,SSW,195,0.0,0.0,69,0.00,,,0.00,Wunderground v.1.15,2013-10-21 02:49:00,
2013-10-20 21:51:00,62.1,51.8,29.86,SSW,195,0.0,0.0,69,0.00,,,0.00,Wunderground v.1.15,2013-10-21 02:51:00,
2013-10-20 21:52:00,62.1,51.8,29.86,SSW,195,0.0,0.0,69,0.00,,,0.00,Wunderground v.1.15,2013-10-21 02:52:00,
2013-10-20 21:53:00,62.1,51.8,29.86,SSW,195,0.0,0.0,69,0.00,,,0.00,Wunderground v.1.15,2013-10-21 02:53:00,
2013-10-20 21:57:00,62.1,51.8,29.86,SSW,195,0.0,0.0,69,0.00,,,0.00,Wunderground v.1.15,2013-10-21 02:57:00,
2013-10-20 21:58:00,62.1,51.8,29.86,SSW,195,0.0,0.0,69,0.00,,,0.00,Wunderground v.1.15,2013-10-21 02:58:00,
2013-10-20 21:59:00,62.0,51.7,29.86,SSW,195,0.0,0.0,69,0.00,,,0.00,Wunderground v.1.15,2013-10-21 02:59:00,
2013-10-20 22:02:00,62.0,51.7,29.86,SSW,195,0.0,0.0,69,0.00,,,0.00,Wunderground v.1.15,2013-10-21 03:02:00,
2013-10-20 22:03:00,62.0,51.7,29.86,SSW,195,0.0,0.0,69,0.00,,,0.00,Wunderground v.1.15,2013-10-21 03:03:00,
2013-10-20 22:05:00,62.0,51.7,29.86,SSW,195,0.0,0.0,69,0.00,,,0.00,Wunderground v.1.15,2013-10-21 03:05:00,
2013-10-20 22:07:00,62.0,51.7,29.86,SSW,195,0.0,0.0,69,0.00,,,0.00,Wunderground v.1.15,2013-10-21 03:07:00,
2013-10-20 22:08:00,62.0,51.7,29.86,SSW,195,0.0,0.0,69,0.00,,,0.00,Wunderground v.1.15,2013-10-21 03:08:00,
2013-10-20 22:11:00,62.1,51.8,29.86,SSW,195,0.0,0.0,69,0.00,,,0.00,Wunderground v.1.15,2013-10-21 03:11:00,
2013-10-20 22:14:00,62.0,51.7,29.86,SSW,195,0.0,0.0,69,0.00,,,0.00,Wunderground v.1.15,2013-10-21 03:14:00,
2013-10-20 22:19:00,62.0,52.1,29.86,SSW,195,0.0,0.0,70,0.00,,,0.00,Wunderground v.1.15,2013-10-21 03:19:00,
2013-10-20 22:20:00,61.8,51.9,29.86,SSW,195,0.0,0.0,70,0.00,,,0.00,Wunderground v.1.15,2013-10-21 03:20:00,
2013-10-20 22:22:00,61.8,51.9,29.86,SSW,195,0.0,0.0,70,0.00,,,0.00,Wunderground v.1.15,2013-10-21 03:22:00,
2013-10-20 22:24:00,61.8,51.9,29.86,SSW,195,0.0,0.0,70,0.00,,,0.00,Wunderground v.1.15,2013-10-21 03:24:00,
2013-10-20 22:26:00,61.6,51.7,29.86,SSW,195,0.0,0.0,70,0.00,,,0.00,Wunderground v.1.15,2013-10-21 03:26:00,
2013-10-20 22:27:00,61.6,51.7,29.86,SSW,195,0.0,0.0,70,0.00,,,0.00,Wunderground v.1.15,2013-10-21 03:27:00,
2013-10-20 22:29:00,61.6,51.7,29.86,SSW,195,0.0,0.0,70,0.00,,,0.00,Wunderground v.1.15,2013-10-21 03:29:00,
2013-10-20 22:30:00,61.6,51.7,29.86,South,188,0.0,0.0,70,0.00,,,0.00,Wunderground v.1.15,2013-10-21 03:30:00,
2013-10-20 22:34:00,61.6,51.3,29.87,South,188,0.0,0.0,69,0.00,,,0.00,Wunderground v.1.15,2013-10-21 03:34:00,
2013-10-20 22:37:00,61.6,51.3,29.87,South,188,0.0,0.0,69,0.00,,,0.00,Wunderground v.1.15,2013-10-21 03:37:00,
2013-10-20 22:38:00,61.6,51.3,29.87,South,188,0.0,0.0,69,0.00,,,0.00,Wunderground v.1.15,2013-10-21 03:38:00,
2013-10-20 22:41:00,61.6,51.3,29.87,South,188,0.0,0.0,69,0.00,,,0.00,Wunderground v.1.15,2013-10-21 03:41:00,
2013-10-20 22:43:00,61.6,51.3,29.87,South,188,0.0,0.0,69,0.00,,,0.00,Wunderground v.1.15,2013-10-21 03:43:00,
2013-10-20 22:46:00,61.8,51.1,29.87,South,188,0.0,0.0,68,0.00,,,0.00,Wunderground v.1.15,2013-10-21 03:46:00,
2013-10-20 22:47:00,61.8,51.1,29.87,South,188,0.0,0.0,68,0.00,,,0.00,Wunderground v.1.15,2013-10-21 03:47:00,
2013-10-20 22:49:00,61.8,50.7,29.87,South,188,0.0,0.0,67,0.00,,,0.00,Wunderground v.1.15,2013-10-21 03:49:00,
2013-10-20 22:51:00,61.8,50.7,29.87,South,188,0.0,0.0,67,0.00,,,0.00,Wunderground v.1.15,2013-10-21 03:51:00,
2013-10-20 22:52:00,61.8,50.7,29.87,South,188,0.0,0.0,67,0.00,,,0.00,Wunderground v.1.15,2013-10-21 03:52:00,
2013-10-20 22:54:00,61.8,50.7,29.87,South,188,0.0,0.0,67,0.00,,,0.00,Wunderground v.1.15,2013-10-21 03:54:00,
2013-10-20 22:56:00,61.6,50.5,29.87,South,188,0.0,0.0,67,0.00,,,0.00,Wunderground v.1.15,2013-10-21 03:56:00,
2013-10-20 22:57:00,61.6,50.5,29.87,South,188,0.0,0.0,67,0.00,,,0.00,Wunderground v.1.15,2013-10-21 03:57:00,
2013-10-20 22:59:00,61.6,50.5,29.87,South,188,0.0,0.0,67,0.00,,,0.00,Wunderground v.1.15,2013-10-21 03:59:00,
2013-10-20 23:01:00,61.6,50.5,29.87,South,188,0.0,0.0,67,0.00,,,0.00,Wunderground v.1.15,2013-10-21 04:01:00,
2013-10-20 23:03:00,61.5,50.8,29.88,South,188,0.0,0.0,68,0.00,,,0.00,Wunderground v.1.15,2013-10-21 04:03:00,
2013-10-20 23:04:00,61.5,50.8,29.88,South,188,0.0,0.0,68,0.00,,,0.00,Wunderground v.1.15,2013-10-21 04:04:00,
2013-10-20 23:05:00,61.5,50.8,29.88,South,188,0.0,0.0,68,0.00,,,0.00,Wunderground v.1.15,2013-10-21 04:05:00,
2013-10-20 23:06:00,61.5,50.8,29.88,South,188,0.0,0.0,68,0.00,,,0.00,Wunderground v.1.15,2013-10-21 04:06:00,
2013-10-20 23:11:00,61.3,51.0,29.88,South,188,0.0,0.0,69,0.00,,,0.00,Wunderground v.1.15,2013-10-21 04:11:00,
2013-10-20 23:13:00,61.3,50.6,29.88,South,188,0.0,0.0,68,0.00,,,0.00,Wunderground v.1.15,2013-10-21 04:13:00,
2013-10-20 23:14:00,61.3,51.0,29.88,South,188,0.0,0.0,69,0.00,,,0.00,Wunderground v.1.15,2013-10-21 04:14:00,
2013-10-20 23:15:00,61.2,50.9,29.88,South,188,0.0,0.0,69,0.00,,,0.00,Wunderground v.1.15,2013-10-21 04:15:00,
2013-10-20 23:19:00,61.2,50.9,29.88,South,188,0.0,0.0,69,0.00,,,0.00,Wunderground v.1.15,2013-10-21 04:19:00,
2013-10-20 23:20:00,61.2,50.9,29.88,South,188,0.0,0.0,69,0.00,,,0.00,Wunderground v.1.15,2013-10-21 04:20:00,
2013-10-20 23:21:00,61.2,50.9,29.88,South,188,0.0,0.0,69,0.00,,,0.00,Wunderground v.1.15,2013-10-21 04:21:00,
2013-10-20 23:24:00,61.2,50.9,29.88,South,188,0.0,0.0,69,0.00,,,0.00,Wunderground v.1.15,2013-10-21 04:24:00,
2013-10-20 23:25:00,61.2,50.9,29.88,South,188,0.0,0.0,69,0.00,,,0.00,Wunderground v.1.15,2013-10-21 04:25:00,
2013-10-20 23:26:00,61.2,50.9,29.88,South,188,0.0,0.0,69,0.00,,,0.00,Wunderground v.1.15,2013-10-21 04:26:00,
2013-10-20 23:29:00,61.2,50.9,29.88,South,188,0.0,0.0,69,0.00,,,0.00,Wunderground v.1.15,2013-10-21 04:29:00,
2013-10-20 23:31:00,61.3,51.0,29.88,South,188,0.0,0.0,69,0.00,,,0.00,Wunderground v.1.15,2013-10-21 04:31:00,
2013-10-20 23:33:00,61.3,51.0,29.87,South,188,0.0,0.0,69,0.00,,,0.00,Wunderground v.1.15,2013-10-21 04:33:00,
2013-10-20 23:35:00,61.3,51.0,29.87,South,188,0.0,0.0,69,0.00,,,0.00,Wunderground v.1.15,2013-10-21 04:35:00,
2013-10-20 23:38:00,61.5,51.2,29.87,South,188,0.0,0.0,69,0.00,,,0.00,Wunderground v.1.15,2013-10-21 04:38:00,
2013-10-20 23:39:00,61.5,51.2,29.87,South,188,0.0,0.0,69,0.00,,,0.00,Wunderground v.1.15,2013-10-21 04:39:00,
2013-10-20 23:41:00,61.5,51.2,29.87,South,188,0.0,0.0,69,0.00,,,0.00,Wunderground v.1.15,2013-10-21 04:41:00,
2013-10-20 23:42:00,61.6,51.3,29.87,South,188,0.0,0.0,69,0.00,,,0.00,Wunderground v.1.15,2013-10-21 04:42:00,
2013-10-20 23:45:00,61.6,51.3,29.87,South,188,0.0,0.0,69,0.00,,,0.00,Wunderground v.1.15,2013-10-21 04:45:00,
2013-10-20 23:46:00,61.6,51.3,29.87,South,188,0.0,0.0,69,0.00,,,0.00,Wunderground v.1.15,2013-10-21 04:46:00,
2013-10-20 23:48:00,61.8,51.5,29.86,South,188,0.0,0.0,69,0.00,,,0.00,Wunderground v.1.15,2013-10-21 04:48:00,
2013-10-20 23:51:00,61.8,51.5,29.86,South,188,0.0,0.0,69,0.00,,,0.00,Wunderground v.1.15,2013-10-21 04:51:00,
2013-10-20 23:54:00,61.8,51.5,29.86,South,188,0.0,0.0,69,0.00,,,0.00,Wunderground v.1.15,2013-10-21 04:54:00,
2013-10-20 23:55:00,61.8,51.5,29.86,South,188,0.0,0.0,69,0.00,,,0.00,Wunderground v.1.15,2013-10-21 04:55:00,
2013-10-20 23:56:00,61.8,51.5,29.86,South,188,0.0,0.0,69,0.00,,,0.00,Wunderground v.1.15,2013-10-21 04:56:00,
2013-10-20 23:59:00,61.6,51.7,29.86,South,188,0.0,1.0,70,0.00,,,0.00,Wunderground v.1.15,2013-10-21 04:59:00,